DW7213 Weather Reports


Display with metric or nautical units.
time (UTC)temp
F
wind
direction
speed
MPH
gust
MPH
rain 1hr
in
rain 24hr
in
rain mn
in
humidity
%
barometer
mb
20180620020640 61 163 6.0 14.0 0.00 0.00 0.00 83 1018.7
20180620020543 61 186 7.0 14.0 0.00 0.00 0.00 82 1018.6
20180620020409 60 202 8.0 14.0 0.00 0.00 0.00 82 1018.6
20180620020314 60 180 7.0 14.0 0.00 0.00 0.00 83 1018.6
20180620020221 60 195 7.0 14.0 0.00 0.00 0.00 83 1018.6
20180620020113 60 215 9.0 14.0 0.00 0.00 0.00 83 1018.6
20180620020017 60 211 8.0 14.0 0.00 0.00 0.00 83 1018.6
20180620015923 60 228 6.0 15.0 0.00 0.00 0.00 84 1018.6
20180620015831 60 194 6.0 15.0 0.00 0.00 0.00 84 1018.6
20180620015717 60 216 6.0 15.0 0.00 0.00 0.00 85 1018.6
20180620015625 60 204 6.0 15.0 0.00 0.00 0.00 85 1018.6
20180620015512 60 209 9.0 16.0 0.00 0.00 0.00 86 1018.5
20180620015419 60 188 11.0 17.0 0.00 0.00 0.00 84 1018.6
20180620015345 60 167 12.0 17.0 0.00 0.00 0.00 83 1018.6
20180620015211 60 167 12.0 17.0 0.00 0.00 0.00 83 1018.6
20180620015118 60 194 11.0 17.0 0.00 0.00 0.00 84 1018.6
20180620015023 60 163 11.0 17.0 0.00 0.00 0.00 83 1018.6
20180620014914 60 200 12.0 17.0 0.00 0.00 0.00 83 1018.6
20180620014841 60 194 13.0 17.0 0.00 0.00 0.00 82 1018.6
20180620014747 60 183 12.0 17.0 0.00 0.00 0.00 83 1018.5
20180620014612 60 180 10.0 14.0 0.00 0.00 0.00 84 1018.6
20180620014516 60 225 11.0 15.0 0.00 0.00 0.00 84 1018.6
20180620014425 60 163 10.0 15.0 0.00 0.00 0.00 83 1018.5
20180620014311 60 193 10.0 15.0 0.00 0.00 0.00 83 1018.6
20180620014222 61 167 9.0 15.0 0.00 0.00 0.00 84 1018.5
20180620014130 61 233 10.0 15.0 0.00 0.00 0.00 83 1018.5
20180620014012 61 176 10.0 15.0 0.00 0.00 0.00 83 1018.5
20180620013920 61 171 9.0 15.0 0.00 0.00 0.00 83 1018.4
20180620013826 61 177 10.0 15.0 0.00 0.00 0.00 83 1018.5
20180620013712 61 163 12.0 15.0 0.00 0.00 0.00 81 1018.4
20180620013642 62 153 11.0 15.0 0.00 0.00 0.00 80 1018.4
20180620013526 62 186 10.0 13.0 0.00 0.00 0.00 82 1018.5
20180620013433 62 189 9.0 12.0 0.00 0.00 0.00 81 1018.5
20180620013339 62 163 7.0 11.0 0.00 0.00 0.00 81 1018.4
20180620013245 62 177 6.0 11.0 0.00 0.00 0.00 80 1018.5
20180620013111 62 186 7.0 12.0 0.00 0.00 0.00 80 1018.4
20180620013014 62 207 6.0 12.0 0.00 0.00 0.00 80 1018.4
20180620012926 62 153 6.0 12.0 0.00 0.00 0.00 79 1018.4
20180620012811 62 205 7.0 12.0 0.00 0.00 0.00 79 1018.4
20180620012740 62 192 7.0 12.0 0.00 0.00 0.00 80 1018.4
20180620012626 62 235 6.0 12.0 0.00 0.00 0.00 80 1018.4
20180620012529 62 192 7.0 15.0 0.00 0.00 0.00 79 1018.4
20180620012416 63 206 8.0 15.0 0.00 0.00 0.00 79 1018.4
20180620012343 63 211 7.0 15.0 0.00 0.00 0.00 78 1018.4
20180620012212 63 215 6.0 15.0 0.00 0.00 0.00 79 1018.5
20180620012119 63 193 6.0 15.0 0.00 0.00 0.00 78 1018.5
20180620012022 63 207 7.0 15.0 0.00 0.00 0.00 77 1018.4
20180620011909 63 210 7.0 15.0 0.00 0.00 0.00 77 1018.4
20180620011817 63 202 8.0 15.0 0.00 0.00 0.00 77 1018.4
20180620011743 63 215 7.0 15.0 0.00 0.00 0.00 78 1018.4
20180620011614 63 193 6.0 12.0 0.00 0.00 0.00 78 1018.4
20180620011522 63 207 6.0 12.0 0.00 0.00 0.00 78 1018.5
20180620011447 63 207 7.0 12.0 0.00 0.00 0.00 78 1018.4
20180620011312 63 226 5.0 12.0 0.00 0.00 0.00 78 1018.3
20180620011218 63 217 6.0 12.0 0.00 0.00 0.00 78 1018.3
20180620011145 63 200 6.0 12.0 0.00 0.00 0.00 78 1018.4
20180620011012 63 216 6.0 11.0 0.00 0.00 0.00 78 1018.4
20180620010941 63 192 5.0 11.0 0.00 0.00 0.00 78 1018.3
20180620010826 63 192 5.0 11.0 0.00 0.00 0.00 78 1018.4
20180620010733 63 199 4.0 11.0 0.00 0.00 0.00 78 1018.4
20180620010620 63 194 5.0 11.0 0.00 0.00 0.00 78 1018.4
20180620010548 63 183 7.0 11.0 0.00 0.00 0.00 78 1018.4
20180620010413 63 183 7.0 11.0 0.00 0.00 0.00 78 1018.4
20180620010338 63 204 6.0 11.0 0.00 0.00 0.00 78 1018.4
20180620010207 63 176 6.0 11.0 0.00 0.00 0.00 78 1018.4
20180620010116 63 194 6.0 12.0 0.00 0.00 0.00 79 1018.4
20180620010023 63 202 5.0 12.0 0.00 0.00 0.00 79 1018.4
20180620005948 63 197 6.0 12.0 0.00 0.00 0.00 78 1018.4
20180620005814 63 229 7.0 12.0 0.00 0.00 0.00 79 1018.4
20180620005720 63 187 7.0 12.0 0.00 0.00 0.00 79 1018.3
20180620005610 63 215 6.0 12.0 0.00 0.00 0.00 79 1018.3
20180620005514 63 188 6.0 12.0 0.00 0.00 0.00 78 1018.3
20180620005442 63 209 7.0 12.0 0.00 0.00 0.00 78 1018.4
20180620005329 63 217 7.0 12.0 0.00 0.00 0.00 79 1018.5
20180620005214 63 216 7.0 12.0 0.00 0.00 0.00 79 1018.4
20180620005120 63 210 7.0 12.0 0.00 0.00 0.00 79 1018.4
20180620005030 63 188 5.0 12.0 0.00 0.00 0.00 80 1018.4
20180620004916 63 198 6.0 12.0 0.00 0.00 0.00 80 1018.4
20180620004824 63 193 7.0 12.0 0.00 0.00 0.00 80 1018.4
20180620004710 63 211 7.0 12.0 0.00 0.00 0.00 79 1018.4
20180620004639 63 227 7.0 12.0 0.00 0.00 0.00 80 1018.4
20180620004522 63 211 7.0 12.0 0.00 0.00 0.00 80 1018.4
20180620004412 62 217 8.0 12.0 0.00 0.00 0.00 80 1018.4
20180620004339 62 190 7.0 13.0 0.00 0.00 0.00 81 1018.5
20180620004225 62 213 6.0 13.0 0.00 0.00 0.00 81 1018.4
20180620004132 62 194 6.0 13.0 0.00 0.00 0.00 80 1018.5
20180620004015 62 197 7.0 13.0 0.00 0.00 0.00 82 1018.5
20180620003942 62 173 7.0 13.0 0.00 0.00 0.00 82 1018.5
20180620003807 62 189 9.0 13.0 0.00 0.00 0.00 82 1018.5
20180620003735 62 180 9.0 13.0 0.00 0.00 0.00 81 1018.5
20180620003623 62 198 7.0 13.0 0.00 0.00 0.00 81 1018.5
20180620003508 62 217 7.0 13.0 0.00 0.00 0.00 81 1018.5
20180620003435 62 163 8.0 13.0 0.00 0.00 0.00 80 1018.6
20180620003321 62 187 8.0 13.0 0.00 0.00 0.00 79 1018.5
20180620003207 62 219 8.0 13.0 0.00 0.00 0.00 79 1018.5
20180620003137 62 203 9.0 13.0 0.00 0.00 0.00 79 1018.5
20180620003040 62 197 9.0 13.0 0.00 0.00 0.00 79 1018.6
20180620002930 62 163 9.0 13.0 0.00 0.00 0.00 79 1018.5
20180620002837 62 209 8.0 13.0 0.00 0.00 0.00 79 1018.5
20180620002723 62 186 7.0 15.0 0.00 0.00 0.00 79 1018.5
20180620002609 62 206 9.0 15.0 0.00 0.00 0.00 79 1018.5
20180620002513 62 202 8.0 15.0 0.00 0.00 0.00 79 1018.5
20180620002420 63 223 7.0 15.0 0.00 0.00 0.00 79 1018.5
20180620002310 63 202 7.0 15.0 0.00 0.00 0.00 80 1018.6
20180620002237 63 204 7.0 15.0 0.00 0.00 0.00 80 1018.6
20180620002123 63 190 8.0 15.0 0.00 0.00 0.00 79 1018.5
20180620002007 63 196 8.0 15.0 0.00 0.00 0.00 78 1018.6
20180620001914 63 199 7.0 15.0 0.00 0.00 0.00 78 1018.5
20180620001842 63 211 8.0 15.0 0.00 0.00 0.00 79 1018.6
20180620001712 63 163 7.0 15.0 0.00 0.00 0.00 78 1018.6
20180620001641 63 188 7.0 15.0 0.00 0.00 0.00 78 1018.6
20180620001524 63 173 8.0 15.0 0.00 0.00 0.00 77 1018.6
20180620001412 63 212 6.0 12.0 0.00 0.00 0.00 78 1018.6
20180620001320 63 202 6.0 12.0 0.00 0.00 0.00 78 1018.6
20180620001227 63 198 7.0 12.0 0.00 0.00 0.00 77 1018.5
20180620001118 64 211 7.0 12.0 0.00 0.00 0.00 77 1018.6
20180620001022 64 190 7.0 12.0 0.00 0.00 0.00 78 1018.5
20180620000908 64 203 7.0 12.0 0.00 0.00 0.00 78 1018.6
20180620000835 64 195 7.0 12.0 0.00 0.00 0.00 78 1018.6
20180620000722 64 174 7.0 12.0 0.00 0.00 0.00 78 1018.6
20180620000609 64 229 7.0 12.0 0.00 0.00 0.00 78 1018.6
20180620000533 64 241 8.0 12.0 0.00 0.00 0.00 77 1018.6
20180620000423 64 224 8.0 12.0 0.00 0.00 0.00 77 1018.6
20180620000309 64 207 8.0 12.0 0.00 0.00 0.00 78 1018.6
20180620000216 64 197 8.0 12.0 0.00 0.00 0.00 77 1018.6
20180620000125 64 188 7.0 12.0 0.00 0.00 0.00 77 1018.7
20180620000029 64 225 7.0 12.0 0.00 0.00 0.00 78 1018.7
20180619235915 64 207 8.0 12.0 0.00 0.00 0.00 77 1018.6
20180619235825 64 190 8.0 12.0 0.00 0.00 0.00 76 1018.7
20180619235733 64 188 8.0 12.0 0.00 0.00 0.00 77 1018.7
20180619235619 64 204 8.0 12.0 0.00 0.00 0.00 77 1018.7
20180619235522 64 189 8.0 14.0 0.00 0.00 0.00 76 1018.7
20180619235409 64 216 7.0 15.0 0.00 0.00 0.00 77 1018.7
20180619235315 64 227 7.0 15.0 0.00 0.00 0.00 78 1018.7
20180619235226 64 195 7.0 15.0 0.00 0.00 0.00 78 1018.7
20180619235112 64 200 7.0 15.0 0.00 0.00 0.00 77 1018.7
20180619235037 64 202 8.0 15.0 0.00 0.00 0.00 78 1018.7
20180619234943 64 223 7.0 15.0 0.00 0.00 0.00 77 1018.7
20180619234848 64 209 8.0 15.0 0.00 0.00 0.00 77 1018.8
20180619234714 64 192 9.0 15.0 0.00 0.00 0.00 77 1018.8
20180619234639 64 200 9.0 15.0 0.00 0.00 0.00 77 1018.8
20180619234542 64 215 9.0 13.0 0.00 0.00 0.00 77 1018.8
20180619234412 64 214 8.0 13.0 0.00 0.00 0.00 77 1018.8
20180619234340 64 211 7.0 13.0 0.00 0.00 0.00 77 1018.7
20180619234226 64 215 6.0 11.0 0.00 0.00 0.00 78 1018.8
20180619234132 64 192 6.0 12.0 0.00 0.00 0.00 78 1018.8
20180619234015 64 179 6.0 12.0 0.00 0.00 0.00 77 1018.8
20180619233921 64 200 7.0 12.0 0.00 0.00 0.00 77 1018.8
20180619233813 64 189 6.0 12.0 0.00 0.00 0.00 77 1018.8
20180619233720 64 236 5.0 12.0 0.00 0.00 0.00 77 1018.8
20180619233647 64 188 7.0 12.0 0.00 0.00 0.00 78 1018.7
20180619233531 64 189 6.0 12.0 0.00 0.00 0.00 77 1018.7
20180619233417 64 217 6.0 12.0 0.00 0.00 0.00 77 1018.7
20180619233344 64 194 6.0 12.0 0.00 0.00 0.00 78 1018.8
20180619233210 63 193 5.0 12.0 0.00 0.00 0.00 78 1018.8
20180619233123 63 211 6.0 12.0 0.00 0.00 0.00 78 1018.8
20180619233027 63 204 7.0 14.0 0.00 0.00 0.00 78 1018.7
20180619232934 63 233 6.0 14.0 0.00 0.00 0.00 78 1018.8
20180619232841 63 177 6.0 14.0 0.00 0.00 0.00 78 1018.9
20180619232748 63 174 7.0 14.0 0.00 0.00 0.00 79 1018.9
20180619232614 63 227 8.0 14.0 0.00 0.00 0.00 77 1018.9
20180619232518 63 194 7.0 14.0 0.00 0.00 0.00 77 1018.9
20180619232409 63 206 7.0 15.0 0.00 0.00 0.00 78 1019.0
20180619232316 63 207 7.0 15.0 0.00 0.00 0.00 78 1019.0
20180619232244 63 185 8.0 15.0 0.00 0.00 0.00 79 1019.0
20180619232130 63 204 8.0 15.0 0.00 0.00 0.00 79 1019.0
20180619232013 63 242 8.0 15.0 0.00 0.00 0.00 81 1018.9
20180619231942 62 199 8.0 15.0 0.00 0.00 0.00 80 1019.0
20180619231811 62 188 8.0 15.0 0.00 0.00 0.00 80 1019.0
20180619231738 62 194 10.0 15.0 0.00 0.00 0.00 80 1019.0
20180619231625 62 179 10.0 15.0 0.00 0.00 0.00 79 1019.0
20180619231507 63 163 9.0 16.0 0.00 0.00 0.00 79 1019.0
20180619231414 63 209 8.0 18.0 0.00 0.00 0.00 80 1019.0
20180619231321 62 175 6.0 18.0 0.00 0.00 0.00 80 1019.1
20180619231212 62 220 7.0 18.0 0.00 0.00 0.00 81 1019.1
20180619231118 62 163 7.0 18.0 0.00 0.00 0.00 80 1019.1
20180619231046 62 239 8.0 18.0 0.00 0.00 0.00 81 1019.1
20180619230912 62 187 8.0 18.0 0.00 0.00 0.00 80 1019.2
20180619230819 62 186 9.0 18.0 0.00 0.00 0.00 81 1019.2
20180619230726 62 180 11.0 18.0 0.00 0.00 0.00 80 1019.2
20180619230617 62 215 12.0 18.0 0.00 0.00 0.00 80 1019.2
20180619230520 62 204 11.0 17.0 0.00 0.00 0.00 80 1019.2
20180619230427 62 171 11.0 17.0 0.00 0.00 0.00 80 1019.2
20180619230313 62 204 10.0 17.0 0.00 0.00 0.00 79 1019.2
20180619230221 62 232 10.0 17.0 0.00 0.00 0.00 80 1019.2
20180619230125 62 200 11.0 17.0 0.00 0.00 0.00 80 1019.2
20180619230011 62 186 9.0 15.0 0.00 0.00 0.00 80 1019.2
20180619225920 62 153 9.0 15.0 0.00 0.00 0.00 80 1019.2
20180619225847 62 184 10.0 17.0 0.00 0.00 0.00 80 1019.2
20180619225734 62 158 9.0 17.0 0.00 0.00 0.00 80 1019.1
20180619225619 62 219 9.0 17.0 0.00 0.00 0.00 79 1019.2
20180619225522 62 215 9.0 17.0 0.00 0.00 0.00 80 1019.1
20180619225412 62 187 9.0 17.0 0.00 0.00 0.00 80 1019.1
20180619225319 62 213 8.0 17.0 0.00 0.00 0.00 80 1019.1
20180619225226 62 171 7.0 17.0 0.00 0.00 0.00 80 1019.2
20180619225132 62 163 10.0 17.0 0.00 0.00 0.00 81 1019.1
20180619225035 62 183 12.0 17.0 0.00 0.00 0.00 81 1019.2
20180619224940 62 227 13.0 17.0 0.00 0.00 0.00 80 1019.1
20180619224846 62 187 13.0 17.0 0.00 0.00 0.00 80 1019.2
20180619224713 62 190 12.0 17.0 0.00 0.00 0.00 81 1019.2
20180619224624 62 196 12.0 17.0 0.00 0.00 0.00 81 1019.2
20180619224528 62 209 11.0 17.0 0.00 0.00 0.00 81 1019.2
20180619224414 62 163 11.0 17.0 0.00 0.00 0.00 81 1019.2
20180619224322 62 179 11.0 17.0 0.00 0.00 0.00 81 1019.2
20180619224209 62 175 10.0 17.0 0.00 0.00 0.00 82 1019.1
20180619224119 62 200 10.0 17.0 0.00 0.00 0.00 82 1019.2
20180619224047 62 202 11.0 17.0 0.00 0.00 0.00 82 1019.1
20180619223914 62 177 11.0 17.0 0.00 0.00 0.00 82 1019.1
20180619223821 62 179 10.0 17.0 0.00 0.00 0.00 82 1019.2
20180619223708 62 205 10.0 17.0 0.00 0.00 0.00 83 1019.2
20180619223614 62 187 11.0 17.0 0.00 0.00 0.00 83 1019.1
20180619223538 62 175 12.0 17.0 0.00 0.00 0.00 83 1019.2
20180619223409 61 183 11.0 17.0 0.00 0.00 0.00 83 1019.2
20180619223315 61 188 11.0 17.0 0.00 0.00 0.00 84 1019.3
20180619223222 61 174 12.0 17.0 0.00 0.00 0.00 83 1019.3
20180619223109 61 170 11.0 17.0 0.00 0.00 0.00 83 1019.2
20180619223013 61 196 12.0 17.0 0.00 0.00 0.00 84 1019.3
20180619222938 61 204 12.0 17.0 0.00 0.00 0.00 84 1019.2
20180619222809 61 205 11.0 16.0 0.00 0.00 0.00 84 1019.3
20180619222715 61 163 11.0 16.0 0.00 0.00 0.00 84 1019.3
20180619222622 61 196 12.0 16.0 0.00 0.00 0.00 83 1019.3
20180619222526 61 163 11.0 17.0 0.00 0.00 0.00 84 1019.3
20180619222412 61 182 11.0 19.0 0.00 0.00 0.00 85 1019.3
20180619222323 60 192 12.0 19.0 0.00 0.00 0.00 85 1019.3
20180619222211 60 200 12.0 20.0 0.00 0.00 0.00 85 1019.3
20180619222117 60 167 12.0 21.0 0.00 0.00 0.00 85 1019.3
20180619222021 60 185 12.0 21.0 0.00 0.00 0.00 85 1019.3
20180619221908 60 207 13.0 22.0 0.00 0.00 0.00 86 1019.5
20180619221835 60 180 14.0 22.0 0.00 0.00 0.00 85 1019.3
20180619221725 60 170 15.0 22.0 0.00 0.00 0.00 85 1019.4
20180619221612 60 180 15.0 23.0 0.00 0.00 0.00 85 1019.4
20180619221516 60 191 14.0 23.0 0.00 0.00 0.00 85 1019.5
20180619221441 59 167 15.0 23.0 0.00 0.00 0.00 86 1019.5
20180619221348 59 168 16.0 23.0 0.00 0.00 0.00 85 1019.5
20180619221212 59 163 16.0 23.0 0.00 0.00 0.00 85 1019.5
20180619221118 59 168 16.0 23.0 0.00 0.00 0.00 85 1019.5
20180619221026 59 158 16.0 23.0 0.00 0.00 0.00 85 1019.5
20180619220913 59 174 16.0 23.0 0.00 0.00 0.00 85 1019.5
20180619220840 59 172 16.0 23.0 0.00 0.00 0.00 85 1019.5
20180619220727 59 180 15.0 21.0 0.00 0.00 0.00 86 1019.4
20180619220613 59 175 16.0 21.0 0.00 0.00 0.00 85 1019.5
20180619220516 59 197 16.0 21.0 0.00 0.00 0.00 85 1019.4
20180619220427 59 180 16.0 21.0 0.00 0.00 0.00 84 1019.4
20180619220314 59 175 14.0 20.0 0.00 0.00 0.00 85 1019.5
20180619220221 59 192 13.0 19.0 0.00 0.00 0.00 85 1019.4
20180619220129 59 178 15.0 23.0 0.00 0.00 0.00 84 1019.4
20180619220031 59 163 15.0 23.0 0.00 0.00 0.00 84 1019.4
20180619215938 59 146 15.0 23.0 0.00 0.00 0.00 85 1019.4
20180619215844 59 207 15.0 23.0 0.00 0.00 0.00 85 1019.5
20180619215714 59 171 15.0 23.0 0.00 0.00 0.00 85 1019.3
20180619215642 59 208 15.0 23.0 0.00 0.00 0.00 85 1019.4
20180619215527 59 190 16.0 23.0 0.00 0.00 0.00 85 1019.3
20180619215413 59 163 16.0 23.0 0.00 0.00 0.00 84 1019.3
20180619215342 59 182 16.0 23.0 0.00 0.00 0.00 85 1019.3
20180619215208 59 190 15.0 21.0 0.00 0.00 0.00 85 1019.3
20180619215135 60 171 16.0 21.0 0.00 0.00 0.00 84 1019.3
20180619215021 60 167 16.0 21.0 0.00 0.00 0.00 84 1019.3
20180619214928 60 174 15.0 20.0 0.00 0.00 0.00 84 1019.3
20180619214815 60 188 15.0 20.0 0.00 0.00 0.00 84 1019.3
20180619214721 60 172 15.0 20.0 0.00 0.00 0.00 85 1019.4
20180619214629 60 163 15.0 20.0 0.00 0.00 0.00 83 1019.4
20180619214512 60 177 15.0 20.0 0.00 0.00 0.00 84 1019.5
20180619214422 60 183 15.0 20.0 0.00 0.00 0.00 84 1019.4
20180619214307 60 171 14.0 19.0 0.00 0.00 0.00 84 1019.5
20180619214215 60 183 14.0 18.0 0.00 0.00 0.00 84 1019.5
20180619214122 60 196 14.0 18.0 0.00 0.00 0.00 84 1019.4
20180619214026 60 168 14.0 18.0 0.00 0.00 0.00 84 1019.5
20180619213913 60 188 14.0 18.0 0.00 0.00 0.00 84 1019.5
20180619213845 60 172 13.0 18.0 0.00 0.00 0.00 84 1019.4
20180619213711 60 163 13.0 18.0 0.00 0.00 0.00 83 1019.3
20180619213638 60 167 14.0 18.0 0.00 0.00 0.00 83 1019.5
20180619213544 61 191 14.0 18.0 0.00 0.00 0.00 83 1019.4
20180619213409 61 177 13.0 17.0 0.00 0.00 0.00 84 1019.4
20180619213337 61 190 13.0 17.0 0.00 0.00 0.00 83 1019.4
20180619213223 61 180 13.0 17.0 0.00 0.00 0.00 82 1019.5
20180619213118 61 190 12.0 15.0 0.00 0.00 0.00 83 1019.4
20180619213022 61 175 11.0 15.0 0.00 0.00 0.00 83 1019.5
20180619212909 61 189 12.0 15.0 0.00 0.00 0.00 82 1019.6
20180619212814 61 171 12.0 15.0 0.00 0.00 0.00 82 1019.5
20180619212721 61 198 12.0 15.0 0.00 0.00 0.00 82 1019.5
20180619212628 62 183 11.0 15.0 0.00 0.00 0.00 82 1019.5
20180619212515 61 229 10.0 14.0 0.00 0.00 0.00 82 1019.5
20180619212423 61 202 10.0 14.0 0.00 0.00 0.00 82 1019.5
20180619212331 61 178 10.0 14.0 0.00 0.00 0.00 82 1019.5
20180619212217 61 169 10.0 14.0 0.00 0.00 0.00 81 1019.5
20180619212126 61 190 10.0 14.0 0.00 0.00 0.00 82 1019.5
20180619212009 61 185 11.0 14.0 0.00 0.00 0.00 83 1019.6
20180619211921 61 167 11.0 14.0 0.00 0.00 0.00 83 1019.5
20180619211848 61 163 12.0 14.0 0.00 0.00 0.00 82 1019.6
20180619211737 61 163 11.0 13.0 0.00 0.00 0.00 81 1019.6
20180619211621 61 158 10.0 13.0 0.00 0.00 0.00 81 1019.6
20180619211549 62 167 10.0 13.0 0.00 0.00 0.00 81 1019.6
20180619211413 61 173 10.0 13.0 0.00 0.00 0.00 81 1019.7
20180619211320 61 193 9.0 14.0 0.00 0.00 0.00 82 1019.7
20180619211210 61 177 9.0 14.0 0.00 0.00 0.00 81 1019.7
20180619211138 61 175 10.0 14.0 0.00 0.00 0.00 82 1019.7
20180619211042 61 186 9.0 14.0 0.00 0.00 0.00 82 1019.7
20180619210928 61 172 10.0 14.0 0.00 0.00 0.00 83 1019.7
20180619210813 61 163 10.0 14.0 0.00 0.00 0.00 83 1019.7
20180619210722 61 167 10.0 14.0 0.00 0.00 0.00 83 1019.6
20180619210614 61 182 11.0 14.0 0.00 0.00 0.00 81 1019.7
20180619210518 61 158 10.0 12.0 0.00 0.00 0.00 81 1019.7
20180619210425 61 163 9.0 11.0 0.00 0.00 0.00 81 1019.8
20180619210330 61 177 8.0 11.0 0.00 0.00 0.00 81 1019.8
20180619210214 61 172 8.0 11.0 0.00 0.00 0.00 81 1019.8
20180619210122 61 158 9.0 11.0 0.00 0.00 0.00 80 1019.8
20180619210009 61 171 9.0 11.0 0.00 0.00 0.00 80 1019.8
20180619205915 62 163 9.0 11.0 0.00 0.00 0.00 81 1019.9
20180619205820 62 173 9.0 11.0 0.00 0.00 0.00 81 1019.8
20180619205748 62 176 8.0 11.0 0.00 0.00 0.00 80 1019.9
20180619205634 62 183 8.0 11.0 0.00 0.00 0.00 80 1019.8
20180619205518 62 178 8.0 13.0 0.00 0.00 0.00 80 1019.9
20180619205409 62 163 8.0 13.0 0.00 0.00 0.00 80 1019.9
20180619205315 62 175 8.0 13.0 0.00 0.00 0.00 79 1019.9
20180619205222 62 178 7.0 13.0 0.00 0.00 0.00 80 1019.9
20180619205109 62 173 7.0 13.0 0.00 0.00 0.00 80 1020.0
20180619205034 62 169 8.0 13.0 0.00 0.00 0.00 80 1019.9
20180619204940 62 198 8.0 13.0 0.00 0.00 0.00 81 1020.0
20180619204825 62 188 8.0 13.0 0.00 0.00 0.00 81 1020.1
20180619204716 62 188 8.0 12.0 0.00 0.00 0.00 81 1020.1
20180619204621 62 169 9.0 12.0 0.00 0.00 0.00 82 1020.1
20180619204525 62 163 9.0 12.0 0.00 0.00 0.00 82 1020.2
20180619204412 62 198 8.0 13.0 0.00 0.00 0.00 81 1020.1
20180619204319 62 163 8.0 13.0 0.00 0.00 0.00 81 1020.2
20180619204210 62 200 10.0 13.0 0.00 0.00 0.00 81 1020.2
20180619204117 62 186 10.0 13.0 0.00 0.00 0.00 81 1020.2
20180619204044 62 185 9.0 13.0 0.00 0.00 0.00 81 1020.1
20180619203910 62 186 9.0 13.0 0.00 0.00 0.00 81 1020.2
20180619203839 62 194 9.0 13.0 0.00 0.00 0.00 82 1020.1
20180619203726 62 163 9.0 13.0 0.00 0.00 0.00 82 1020.1
20180619203613 62 188 9.0 14.0 0.00 0.00 0.00 82 1020.2
20180619203524 62 171 8.0 14.0 0.00 0.00 0.00 83 1020.1
20180619203448 61 178 8.0 14.0 0.00 0.00 0.00 83 1020.2
20180619203334 61 187 8.0 14.0 0.00 0.00 0.00 84 1020.1
20180619203220 61 177 9.0 14.0 0.00 0.00 0.00 83 1020.1
20180619203127 61 163 10.0 15.0 0.00 0.00 0.00 83 1020.1
20180619203030 61 194 10.0 15.0 0.00 0.00 0.00 82 1020.1
20180619202916 61 177 10.0 15.0 0.00 0.00 0.00 84 1020.2
20180619202828 61 198 11.0 15.0 0.00 0.00 0.00 84 1020.2
20180619202713 60 177 11.0 16.0 0.00 0.00 0.00 84 1020.1
20180619202621 60 174 11.0 16.0 0.00 0.00 0.00 85 1020.2
20180619202544 60 169 11.0 16.0 0.00 0.00 0.00 85 1020.2
20180619202431 60 194 11.0 20.0 0.00 0.00 0.00 85 1020.1
20180619202317 60 181 11.0 20.0 0.00 0.00 0.00 85 1020.1
20180619202208 60 163 10.0 20.0 0.00 0.00 0.00 86 1020.1
20180619202114 60 186 11.0 20.0 0.00 0.00 0.00 87 1020.1
20180619202039 59 163 12.0 20.0 0.00 0.00 0.00 86 1020.1
20180619201924 59 198 13.0 20.0 0.00 0.00 0.00 87 1020.1
20180619201811 59 169 14.0 20.0 0.00 0.00 0.00 86 1020.1
20180619201738 59 187 15.0 20.0 0.00 0.00 0.00 87 1020.0
20180619201608 59 163 14.0 19.0 0.00 0.00 0.00 87 1020.1
20180619201533 59 186 15.0 19.0 0.00 0.00 0.00 88 1020.1
20180619201440 59 177 15.0 19.0 0.00 0.00 0.00 88 1020.0
20180619201346 59 163 14.0 19.0 0.00 0.00 0.00 88 1020.0
20180619201210 59 169 14.0 19.0 0.00 0.00 0.00 87 1020.0
20180619201119 58 180 14.0 19.0 0.00 0.00 0.00 87 1020.0
20180619201046 58 181 15.0 19.0 0.00 0.00 0.00 87 1020.0
20180619200911 58 175 15.0 19.0 0.00 0.00 0.00 87 1020.1
20180619200823 58 167 14.0 19.0 0.00 0.00 0.00 87 1020.1
20180619200709 58 172 14.0 22.0 0.00 0.00 0.00 88 1020.1
20180619200616 58 175 15.0 22.0 0.00 0.00 0.00 88 1020.1
20180619200520 58 163 15.0 22.0 0.00 0.00 0.00 88 1020.1
20180619200407 58 177 15.0 22.0 0.00 0.00 0.00 89 1020.1
20180619200333 58 177 15.0 22.0 0.00 0.00 0.00 89 1020.1
20180619200223 58 163 15.0 22.0 0.00 0.00 0.00 89 1020.1
20180619200132 57 163 15.0 22.0 0.00 0.00 0.00 90 1020.2
20180619200015 57 180 16.0 22.0 0.00 0.00 0.00 89 1020.1
20180619195943 57 158 16.0 23.0 0.00 0.00 0.00 90 1020.1
20180619195809 57 175 17.0 23.0 0.00 0.00 0.00 90 1020.1
20180619195715 57 167 17.0 23.0 0.00 0.00 0.00 91 1020.2
20180619195625 57 173 17.0 23.0 0.00 0.00 0.00 91 1020.2
20180619195508 56 158 18.0 24.0 0.00 0.00 0.00 90 1020.2
20180619195414 56 153 20.0 24.0 0.00 0.00 0.00 90 1020.1
20180619195321 56 158 20.0 24.0 0.00 0.00 0.00 90 1020.2
20180619195208 56 158 21.0 24.0 0.00 0.00 0.00 90 1020.2
20180619195116 56 163 21.0 24.0 0.00 0.00 0.00 90 1020.2
20180619195024 56 158 21.0 24.0 0.00 0.00 0.00 90 1020.2
20180619194911 56 169 21.0 24.0 0.00 0.00 0.00 90 1020.2
20180619194837 56 163 21.0 24.0 0.00 0.00 0.00 91 1020.1
20180619194723 56 158 20.0 24.0 0.00 0.00 0.00 90 1020.2
20180619194631 56 167 20.0 22.0 0.00 0.00 0.00 90 1020.2
20180619194513 56 163 20.0 22.0 0.00 0.00 0.00 89 1020.2
20180619194423 56 163 20.0 23.0 0.00 0.00 0.00 90 1020.3
20180619194330 56 158 18.0 23.0 0.00 0.00 0.00 89 1020.2
20180619194215 56 153 18.0 23.0 0.00 0.00 0.00 90 1020.2
20180619194142 56 158 17.0 23.0 0.00 0.00 0.00 90 1020.2
20180619194024 56 173 18.0 23.0 0.00 0.00 0.00 91 1020.2
20180619193912 56 167 20.0 23.0 0.00 0.00 0.00 90 1020.2
20180619193819 56 163 20.0 23.0 0.00 0.00 0.00 90 1020.3
20180619193730 56 158 20.0 23.0 0.00 0.00 0.00 90 1020.3
20180619193616 56 163 20.0 23.0 0.00 0.00 0.00 90 1020.3
20180619193520 56 158 19.0 23.0 0.00 0.00 0.00 90 1020.3
20180619193427 56 163 19.0 22.0 0.00 0.00 0.00 90 1020.3
20180619193313 56 163 19.0 22.0 0.00 0.00 0.00 91 1020.3
20180619193240 56 163 19.0 22.0 0.00 0.00 0.00 91 1020.3
20180619193112 56 163 19.0 22.0 0.00 0.00 0.00 91 1020.3
20180619193016 56 163 20.0 22.0 0.00 0.00 0.00 90 1020.3
20180619192923 56 163 19.0 22.0 0.00 0.00 0.00 91 1020.3
20180619192831 56 167 20.0 22.0 0.00 0.00 0.00 90 1020.4
20180619192715 56 148 19.0 22.0 0.00 0.00 0.00 90 1020.4
20180619192621 56 158 19.0 21.0 0.00 0.00 0.00 91 1020.5
20180619192510 56 158 19.0 21.0 0.00 0.00 0.00 91 1020.4
20180619192418 56 153 18.0 21.0 0.00 0.00 0.00 91 1020.5
20180619192325 56 158 18.0 23.0 0.00 0.00 0.00 92 1020.5
20180619192211 55 153 18.0 23.0 0.00 0.00 0.00 91 1020.5
20180619192118 55 153 19.0 23.0 0.00 0.00 0.00 91 1020.5
20180619192022 55 158 18.0 23.0 0.00 0.00 0.00 91 1020.6
20180619191913 55 153 18.0 23.0 0.00 0.00 0.00 90 1020.6
20180619191822 55 173 18.0 23.0 0.00 0.00 0.00 90 1020.6
20180619191707 55 153 18.0 23.0 0.00 0.00 0.00 90 1020.6
20180619191637 55 168 19.0 23.0 0.00 0.00 0.00 91 1020.6
20180619191518 56 158 18.0 23.0 0.00 0.00 0.00 90 1020.6
20180619191409 55 163 17.0 21.0 0.00 0.00 0.00 89 1020.6
20180619191317 55 158 17.0 21.0 0.00 0.00 0.00 90 1020.7
20180619191224 56 163 17.0 21.0 0.00 0.00 0.00 90 1020.7
20180619191110 56 158 18.0 21.0 0.00 0.00 0.00 90 1020.7
20180619191035 56 167 17.0 21.0 0.00 0.00 0.00 90 1020.8
20180619190920 56 169 17.0 21.0 0.00 0.00 0.00 89 1020.7
20180619190811 56 167 17.0 21.0 0.00 0.00 0.00 90 1020.7
20180619190719 56 163 17.0 21.0 0.00 0.00 0.00 90 1020.7
20180619190627 56 171 18.0 21.0 0.00 0.00 0.00 88 1020.7
20180619190512 56 153 16.0 19.0 0.00 0.00 0.00 87 1020.7
20180619190419 56 167 14.0 18.0 0.00 0.00 0.00 87 1020.8
20180619190346 57 170 13.0 18.0 0.00 0.00 0.00 86 1020.7
20180619190215 57 175 13.0 18.0 0.00 0.00 0.00 86 1020.7
20180619190125 57 181 12.0 18.0 0.00 0.00 0.00 86 1020.7
20180619190027 57 191 12.0 18.0 0.00 0.00 0.00 86 1020.7
20180619185934 57 221 13.0 18.0 0.00 0.00 0.00 85 1020.7
20180619185820 57 191 13.0 18.0 0.00 0.00 0.00 86 1020.7
20180619185728 57 163 12.0 17.0 0.00 0.00 0.00 87 1020.7
20180619185618 57 183 11.0 17.0 0.00 0.00 0.00 87 1020.7
20180619185545 57 180 10.0 17.0 0.00 0.00 0.00 87 1020.7
20180619185411 57 202 9.0 17.0 0.00 0.00 0.00 88 1020.7
20180619185319 57 153 9.0 17.0 0.00 0.00 0.00 88 1020.7
20180619185225 57 169 10.0 17.0 0.00 0.00 0.00 88 1020.7
20180619185112 56 211 11.0 17.0 0.00 0.00 0.00 88 1020.7
20180619185015 56 211 10.0 17.0 0.00 0.00 0.00 88 1020.7
20180619184922 56 180 11.0 17.0 0.00 0.00 0.00 88 1020.7
20180619184830 56 207 12.0 17.0 0.00 0.00 0.00 88 1020.8
20180619184715 56 217 11.0 16.0 0.00 0.00 0.00 88 1020.7
20180619184622 56 183 10.0 16.0 0.00 0.00 0.00 88 1020.7
20180619184525 56 171 10.0 16.0 0.00 0.00 0.00 89 1020.7
20180619184437 56 185 10.0 16.0 0.00 0.00 0.00 88 1020.7
20180619184323 56 192 10.0 16.0 0.00 0.00 0.00 89 1020.7
20180619184250 56 163 10.0 15.0 0.00 0.00 0.00 89 1020.7
20180619184114 56 173 11.0 15.0 0.00 0.00 0.00 89 1020.7
20180619184037 56 167 9.0 15.0 0.00 0.00 0.00 89 1020.7
20180619183923 56 172 9.0 15.0 0.00 0.00 0.00 88 1020.7
20180619183810 56 196 10.0 15.0 0.00 0.00 0.00 89 1020.7
20180619183720 56 169 9.0 15.0 0.00 0.00 0.00 90 1020.7
20180619183627 56 173 10.0 15.0 0.00 0.00 0.00 90 1020.8
20180619183512 56 207 10.0 15.0 0.00 0.00 0.00 89 1020.8
20180619183418 56 158 10.0 15.0 0.00 0.00 0.00 89 1020.8
20180619183325 56 182 10.0 15.0 0.00 0.00 0.00 89 1020.8
20180619183233 56 181 11.0 15.0 0.00 0.00 0.00 89 1020.9
20180619183124 56 196 12.0 16.0 0.00 0.00 0.00 89 1020.7
20180619183026 56 180 12.0 16.0 0.00 0.00 0.00 89 1020.8
20180619182913 56 175 10.0 16.0 0.00 0.00 0.00 90 1020.8
20180619182820 56 209 9.0 16.0 0.00 0.00 0.00 90 1020.7
20180619182727 56 172 10.0 16.0 0.00 0.00 0.00 90 1020.8
20180619182617 56 163 11.0 16.0 0.00 0.00 0.00 90 1020.8
20180619182521 56 184 12.0 17.0 0.00 0.00 0.00 90 1020.8
20180619182429 56 184 12.0 17.0 0.00 0.00 0.00 90 1020.9
20180619182314 56 177 12.0 17.0 0.00 0.00 0.00 89 1020.8
20180619182221 56 163 11.0 17.0 0.00 0.00 0.00 89 1020.9
20180619182108 56 163 13.0 17.0 0.00 0.00 0.00 89 1020.8
20180619182017 56 175 13.0 17.0 0.00 0.00 0.00 89 1020.8
20180619181923 56 163 12.0 17.0 0.00 0.00 0.00 89 1020.8
20180619181808 56 188 12.0 17.0 0.00 0.00 0.00 89 1020.8
20180619181716 56 193 11.0 17.0 0.00 0.00 0.00 90 1020.7
20180619181623 56 168 9.0 16.0 0.00 0.00 0.00 90 1020.8
20180619181527 56 217 10.0 16.0 0.00 0.00 0.00 90 1020.7
20180619181418 56 214 12.0 16.0 0.00 0.00 0.00 90 1020.7
20180619181326 56 188 13.0 16.0 0.00 0.00 0.00 89 1020.8
20180619181213 56 171 11.0 16.0 0.00 0.00 0.00 90 1020.8
20180619181120 56 213 10.0 16.0 0.00 0.00 0.00 90 1020.8
20180619181025 55 173 11.0 16.0 0.00 0.00 0.00 91 1020.7
20180619180932 55 192 10.0 16.0 0.00 0.00 0.00 90 1020.7
20180619180822 55 182 10.0 16.0 0.00 0.00 0.00 91 1020.8
20180619180710 55 172 11.0 16.0 0.00 0.00 0.00 91 1020.8
20180619180617 55 183 10.0 16.0 0.00 0.00 0.00 91 1020.8
20180619180520 55 230 10.0 16.0 0.00 0.00 0.00 91 1020.8
20180619180427 55 188 11.0 16.0 0.00 0.00 0.00 91 1020.9
20180619180331 55 172 12.0 18.0 0.00 0.00 0.00 91 1020.8
20180619180220 55 173 12.0 18.0 0.00 0.00 0.00 91 1020.8
20180619180108 55 180 11.0 18.0 0.00 0.00 0.00 91 1020.9
20180619180031 55 170 11.0 18.0 0.00 0.00 0.00 91 1020.9
20180619175937 55 182 11.0 18.0 0.00 0.00 0.00 91 1020.8
20180619175823 55 185 12.0 18.0 0.00 0.00 0.00 92 1020.9
20180619175710 55 175 13.0 18.0 0.00 0.00 0.00 92 1020.7
20180619175621 55 153 14.0 18.0 0.00 0.00 0.00 91 1020.8
20180619175525 55 163 16.0 18.0 0.00 0.00 0.00 91 1020.8
20180619175412 55 163 14.0 18.0 0.00 0.00 0.00 91 1020.8
20180619175319 55 163 12.0 17.0 0.00 0.00 0.00 91 1020.8
20180619175226 55 163 10.0 17.0 0.00 0.00 0.00 91 1020.8
20180619175113 55 187 10.0 17.0 0.00 0.00 0.00 91 1020.8
20180619175041 55 195 12.0 17.0 0.00 0.00 0.00 91 1020.8
20180619174908 55 190 13.0 17.0 0.00 0.00 0.00 91 1020.8
20180619174815 55 191 13.0 17.0 0.00 0.00 0.00 91 1020.8
20180619174742 55 192 12.0 17.0 0.00 0.00 0.00 91 1020.8
20180619174648 55 180 12.0 17.0 0.00 0.00 0.00 91 1020.8
20180619174511 55 174 12.0 17.0 0.00 0.00 0.00 91 1020.8
20180619174418 55 181 11.0 18.0 0.00 0.00 0.00 92 1020.9
20180619174309 55 193 11.0 18.0 0.00 0.00 0.00 91 1020.9
20180619174217 55 200 12.0 18.0 0.00 0.00 0.00 92 1020.8
20180619174143 55 188 12.0 18.0 0.00 0.00 0.00 92 1020.9
20180619174027 55 197 12.0 18.0 0.00 0.00 0.00 92 1020.8
20180619173914 55 173 13.0 18.0 0.00 0.00 0.00 92 1020.8
20180619173821 55 169 14.0 18.0 0.00 0.00 0.00 92 1020.9
20180619173713 55 169 15.0 18.0 0.00 0.00 0.00 92 1020.8
20180619173620 55 158 15.0 18.0 0.00 0.00 0.00 91 1020.9
20180619173523 55 168 15.0 18.0 0.00 0.00 0.00 92 1020.9
20180619173410 55 171 13.0 18.0 0.00 0.00 0.00 91 1020.9
20180619173317 55 173 12.0 18.0 0.00 0.00 0.00 92 1020.8
20180619173210 55 175 14.0 18.0 0.00 0.00 0.00 91 1020.8
20180619173118 55 181 15.0 18.0 0.00 0.00 0.00 91 1020.8
20180619173021 55 170 15.0 18.0 0.00 0.00 0.00 90 1020.8
20180619172908 55 168 14.0 18.0 0.00 0.00 0.00 90 1020.9
20180619172815 55 173 14.0 17.0 0.00 0.00 0.00 91 1020.8
20180619172743 55 169 13.0 17.0 0.00 0.00 0.00 90 1020.8
20180619172633 55 163 12.0 16.0 0.00 0.00 0.00 91 1020.8
20180619172536 55 193 12.0 16.0 0.00 0.00 0.00 91 1020.9
20180619172422 55 171 12.0 17.0 0.00 0.00 0.00 91 1020.8
20180619172308 55 163 11.0 18.0 0.00 0.00 0.00 91 1020.8
20180619172215 55 178 11.0 18.0 0.00 0.00 0.00 91 1020.8
20180619172122 55 198 11.0 18.0 0.00 0.00 0.00 91 1020.8
20180619172048 55 173 12.0 18.0 0.00 0.00 0.00 91 1020.8
20180619171918 55 180 13.0 18.0 0.00 0.00 0.00 90 1020.8
20180619171847 55 163 13.0 18.0 0.00 0.00 0.00 90 1020.9
20180619171713 55 180 14.0 18.0 0.00 0.00 0.00 89 1020.8
20180619171640 55 183 14.0 18.0 0.00 0.00 0.00 90 1020.9
20180619171548 55 174 13.0 18.0 0.00 0.00 0.00 90 1020.8
20180619171433 55 177 12.0 16.0 0.00 0.00 0.00 90 1020.9
20180619171318 55 182 11.0 15.0 0.00 0.00 0.00 89 1020.8
20180619171209 55 177 10.0 15.0 0.00 0.00 0.00 90 1020.8
20180619171116 55 196 11.0 15.0 0.00 0.00 0.00 90 1020.7
20180619171023 55 178 11.0 15.0 0.00 0.00 0.00 89 1020.7
20180619170948 55 222 9.0 15.0 0.00 0.00 0.00 90 1020.7
20180619170814 55 178 8.0 15.0 0.00 0.00 0.00 90 1020.7
20180619170720 55 200 9.0 15.0 0.00 0.00 0.00 90 1020.6
20180619170611 55 204 9.0 15.0 0.00 0.00 0.00 90 1020.7
20180619170514 55 180 10.0 15.0 0.00 0.00 0.00 90 1020.7
20180619170422 55 205 10.0 15.0 0.00 0.00 0.00 90 1020.7
20180619170327 55 207 10.0 15.0 0.00 0.00 0.00 90 1020.6
20180619170213 55 202 9.0 15.0 0.00 0.00 0.00 90 1020.7
20180619170121 55 234 9.0 15.0 0.00 0.00 0.00 90 1020.7
20180619170009 55 194 7.0 15.0 0.00 0.00 0.00 90 1020.8
20180619165936 55 229 7.0 15.0 0.00 0.00 0.00 90 1020.7
20180619165843 55 198 8.0 15.0 0.00 0.00 0.00 90 1020.7
20180619165708 55 208 8.0 15.0 0.00 0.00 0.00 90 1020.7
20180619165615 55 211 7.0 15.0 0.00 0.00 0.00 90 1020.7
20180619165518 55 202 7.0 15.0 0.00 0.00 0.00 90 1020.7
20180619165409 55 192 9.0 15.0 0.00 0.00 0.00 90 1020.7
20180619165316 55 221 9.0 15.0 0.00 0.00 0.00 90 1020.7
20180619165244 55 209 9.0 15.0 0.00 0.00 0.00 90 1020.8
20180619165109 55 200 9.0 16.0 0.00 0.00 0.00 90 1020.7
20180619165037 55 214 9.0 16.0 0.00 0.00 0.00 90 1020.7
20180619165001 55 216 9.0 16.0 0.00 0.00 0.00 90 1020.7
20180619164825 55 217 8.0 16.0 0.00 0.00 0.00 91 1020.7
20180619164736 55 201 7.0 18.0 0.00 0.00 0.00 91 1020.7
20180619164623 55 194 8.0 18.0 0.00 0.00 0.00 91 1020.7
20180619164508 55 194 9.0 18.0 0.00 0.00 0.00 90 1020.7
20180619164415 55 246 11.0 18.0 0.00 0.00 0.00 90 1020.7
20180619164321 55 205 12.0 18.0 0.00 0.00 0.00 91 1020.7
20180619164208 55 235 8.0 18.0 0.00 0.00 0.00 91 1020.7
20180619164118 55 225 7.0 18.0 0.00 0.00 0.00 91 1020.8
20180619164023 55 213 9.0 18.0 0.00 0.00 0.00 91 1020.7
20180619163911 55 209 9.0 18.0 0.00 0.00 0.00 91 1020.7
20180619163839 55 231 9.0 17.0 0.00 0.00 0.00 91 1020.7
20180619163743 55 192 10.0 17.0 0.00 0.00 0.00 91 1020.6
20180619163608 54 215 9.0 17.0 0.00 0.00 0.00 91 1020.7
20180619163516 54 196 9.0 17.0 0.00 0.00 0.00 91 1020.7
20180619163423 54 212 9.0 17.0 0.00 0.00 0.00 90 1020.7
20180619163309 54 207 9.0 15.0 0.00 0.00 0.00 90 1020.6
20180619163216 54 211 8.0 15.0 0.00 0.00 0.00 91 1020.7
20180619163124 54 221 8.0 14.0 0.00 0.00 0.00 90 1020.6
20180619163029 54 254 9.0 14.0 0.00 0.00 0.00 90 1020.6
20180619162935 54 174 9.0 14.0 0.00 0.00 0.00 90 1020.6
20180619162825 54 212 10.0 14.0 0.00 0.00 0.00 90 1020.6
20180619162733 55 158 8.0 14.0 0.00 0.00 0.00 90 1020.6
20180619162619 54 236 8.0 14.0 0.00 0.00 0.00 91 1020.6
20180619162546 54 221 8.0 14.0 0.00 0.00 0.00 90 1020.5
20180619162412 54 209 8.0 14.0 0.00 0.00 0.00 90 1020.6
20180619162319 55 202 8.0 14.0 0.00 0.00 0.00 91 1020.6
20180619162230 55 197 9.0 14.0 0.00 0.00 0.00 91 1020.6
20180619162116 55 192 8.0 14.0 0.00 0.00 0.00 91 1020.6
20180619162020 55 201 7.0 14.0 0.00 0.00 0.00 91 1020.6
20180619161928 55 185 7.0 14.0 0.00 0.00 0.00 91 1020.6
20180619161834 55 212 8.0 14.0 0.00 0.00 0.00 91 1020.6
20180619161722 55 190 8.0 14.0 0.00 0.00 0.00 91 1020.6
20180619161613 55 192 6.0 14.0 0.00 0.00 0.00 91 1020.7
20180619161538 55 187 7.0 14.0 0.00 0.00 0.00 91 1020.6
20180619161425 55 224 9.0 15.0 0.00 0.00 0.00 91 1020.6
20180619161332 55 219 8.0 15.0 0.00 0.00 0.00 91 1020.6
20180619161219 55 206 8.0 15.0 0.00 0.00 0.00 91 1020.7
20180619161146 55 195 9.0 15.0 0.00 0.00 0.00 91 1020.6
20180619161008 55 169 10.0 15.0 0.00 0.00 0.00 91 1020.6
20180619160918 55 190 9.0 15.0 0.00 0.00 0.00 91 1020.6
20180619160846 55 173 10.0 15.0 0.00 0.00 0.00 91 1020.6
20180619160711 55 190 10.0 15.0 0.00 0.00 0.00 91 1020.6
20180619160618 55 186 8.0 14.0 0.00 0.00 0.00 91 1020.7
20180619160522 55 177 7.0 13.0 0.00 0.00 0.00 91 1020.6
20180619160410 55 190 9.0 13.0 0.00 0.00 0.00 91 1020.6
20180619160336 55 163 9.0 13.0 0.00 0.00 0.00 91 1020.6
20180619160225 55 163 8.0 13.0 0.00 0.00 0.00 91 1020.6
20180619160134 55 158 9.0 13.0 0.00 0.00 0.00 91 1020.6
20180619160015 55 153 9.0 15.0 0.00 0.00 0.00 91 1020.6
20180619155923 55 169 7.0 15.0 0.00 0.00 0.00 91 1020.6
20180619155810 55 188 7.0 15.0 0.00 0.00 0.00 91 1020.7
20180619155737 55 168 8.0 15.0 0.00 0.00 0.00 91 1020.7
20180619155628 55 204 9.0 15.0 0.00 0.00 0.00 91 1020.7
20180619155511 55 192 8.0 15.0 0.00 0.00 0.00 91 1020.7
20180619155419 55 238 8.0 15.0 0.00 0.00 0.00 91 1020.7
20180619155325 55 153 9.0 15.0 0.00 0.00 0.00 91 1020.7
20180619155212 54 163 9.0 15.0 0.00 0.00 0.00 91 1020.7
20180619155119 55 194 9.0 15.0 0.00 0.00 0.00 91 1020.6
20180619155028 55 190 9.0 13.0 0.00 0.00 0.00 91 1020.6
20180619154935 55 196 9.0 13.0 0.00 0.00 0.00 91 1020.7
20180619154842 55 181 8.0 13.0 0.00 0.00 0.00 91 1020.7
20180619154727 55 186 8.0 13.0 0.00 0.00 0.00 91 1020.7
20180619154614 55 234 8.0 13.0 0.00 0.00 0.00 92 1020.7
20180619154538 55 198 8.0 13.0 0.00 0.00 0.00 91 1020.7
20180619154409 55 176 9.0 14.0 0.00 0.00 0.00 91 1020.7
20180619154337 54 204 10.0 14.0 0.00 0.00 0.00 91 1020.7
20180619154223 55 163 9.0 14.0 0.00 0.00 0.00 91 1020.7
20180619154130 55 210 8.0 14.0 0.00 0.00 0.00 91 1020.7
20180619154012 55 245 7.0 14.0 0.00 0.00 0.00 91 1020.8
20180619153919 54 189 7.0 14.0 0.00 0.00 0.00 91 1020.7
20180619153810 54 210 8.0 14.0 0.00 0.00 0.00 91 1020.7
20180619153717 55 186 10.0 14.0 0.00 0.00 0.00 91 1020.7
20180619153624 55 192 10.0 14.0 0.00 0.00 0.00 91 1020.6
20180619153508 55 184 9.0 14.0 0.00 0.00 0.00 92 1020.7
20180619153415 55 181 8.0 14.0 0.00 0.00 0.00 92 1020.7
20180619153322 54 163 7.0 14.0 0.00 0.00 0.00 91 1020.7
20180619153213 54 198 8.0 14.0 0.00 0.00 0.00 91 1020.6
20180619153121 54 178 9.0 14.0 0.00 0.00 0.00 91 1020.6
20180619153024 55 184 9.0 14.0 0.00 0.00 0.00 91 1020.6
20180619152910 55 172 7.0 13.0 0.00 0.00 0.00 92 1020.6
20180619152837 55 190 6.0 13.0 0.00 0.00 0.00 92 1020.6
20180619152612 54 171 9.0 13.0 0.00 0.00 0.00 92 1020.6
20180619152535 54 177 9.0 13.0 0.00 0.00 0.00 92 1020.6
20180619152421 54 211 7.0 13.0 0.00 0.00 0.00 92 1020.7
20180619152349 54 196 7.0 13.0 0.00 0.00 0.00 91 1020.7
20180619152235 54 202 7.0 13.0 0.00 0.00 0.00 91 1020.7
20180619152143 54 217 7.0 13.0 0.00 0.00 0.00 91 1020.6
20180619152027 54 186 9.0 13.0 0.00 0.00 0.00 91 1020.6
20180619151914 54 190 9.0 13.0 0.00 0.00 0.00 92 1020.6
20180619151825 54 183 8.0 13.0 0.00 0.00 0.00 92 1020.5
20180619151712 54 177 8.0 13.0 0.00 0.00 0.00 92 1020.6
20180619151620 54 183 7.0 13.0 0.00 0.00 0.00 92 1020.6
20180619151525 54 182 7.0 13.0 0.00 0.00 0.00 92 1020.5
20180619151433 54 195 7.0 13.0 0.00 0.00 0.00 92 1020.5
20180619151339 54 188 7.0 13.0 0.00 0.00 0.00 92 1020.6
20180619151209 54 184 7.0 13.0 0.00 0.00 0.00 92 1020.6
20180619151115 54 196 5.0 12.0 0.00 0.00 0.00 92 1020.5
20180619151017 54 194 7.0 12.0 0.00 0.00 0.00 92 1020.4
20180619150944 54 215 7.0 12.0 0.00 0.00 0.00 92 1020.5
20180619150829 54 192 7.0 12.0 0.00 0.00 0.00 92 1020.5
20180619150714 54 193 8.0 12.0 0.00 0.00 0.00 92 1020.4
20180619150626 54 181 8.0 12.0 0.00 0.00 0.00 92 1020.4
20180619150511 54 225 9.0 12.0 0.00 0.00 0.00 92 1020.4
20180619150439 54 184 9.0 12.0 0.00 0.00 0.00 92 1020.4
20180619150344 54 183 9.0 12.0 0.00 0.00 0.00 92 1020.4
20180619150210 54 172 8.0 12.0 0.00 0.00 0.00 92 1020.3
20180619150120 54 194 8.0 12.0 0.00 0.00 0.00 92 1020.4
20180619150022 54 199 8.0 12.0 0.00 0.00 0.00 92 1020.4
20180619145913 54 196 8.0 12.0 0.00 0.00 0.00 92 1020.5
20180619145819 54 169 9.0 12.0 0.00 0.00 0.00 91 1020.5
20180619145748 54 175 10.0 12.0 0.00 0.00 0.00 91 1020.5
20180619145613 54 190 8.0 12.0 0.00 0.00 0.00 92 1020.5
20180619145516 54 168 6.0 12.0 0.00 0.00 0.00 92 1020.5
20180619145423 54 223 6.0 12.0 0.00 0.00 0.00 92 1020.5
20180619145314 54 163 8.0 12.0 0.00 0.00 0.00 92 1020.4
20180619145241 54 212 7.0 12.0 0.00 0.00 0.00 92 1020.4
20180619145127 54 169 7.0 12.0 0.00 0.00 0.00 92 1020.5
20180619145030 54 180 7.0 12.0 0.00 0.00 0.00 92 1020.4
20180619144915 54 171 6.0 12.0 0.00 0.00 0.00 92 1020.4
20180619144821 54 204 6.0 13.0 0.00 0.00 0.00 92 1020.3
20180619144711 54 211 7.0 13.0 0.00 0.00 0.00 92 1020.3
20180619144620 54 181 8.0 13.0 0.00 0.00 0.00 92 1020.3
20180619144544 54 171 9.0 13.0 0.00 0.00 0.00 92 1020.3
20180619144428 54 183 8.0 13.0 0.00 0.00 0.00 92 1020.3
20180619144314 54 153 7.0 13.0 0.00 0.00 0.00 92 1020.3
20180619144242 54 192 8.0 13.0 0.00 0.00 0.00 92 1020.3
20180619144113 54 192 7.0 13.0 0.00 0.00 0.00 92 1020.3
20180619144018 54 186 6.0 13.0 0.00 0.00 0.00 92 1020.3
20180619143944 54 194 6.0 12.0 0.00 0.00 0.00 92 1020.3
20180619143810 54 202 6.0 12.0 0.00 0.00 0.00 92 1020.2
20180619143717 54 197 7.0 12.0 0.00 0.00 0.00 92 1020.1
20180619143625 54 183 8.0 12.0 0.00 0.00 0.00 92 1020.1
20180619143512 54 211 9.0 12.0 0.00 0.00 0.00 92 1020.2
20180619143418 54 174 9.0 12.0 0.00 0.00 0.00 92 1020.1
20180619143345 54 167 9.0 13.0 0.00 0.00 0.00 92 1020.1
20180619143232 54 163 9.0 13.0 0.00 0.00 0.00 92 1020.1
20180619143119 54 182 9.0 13.0 0.00 0.00 0.00 92 1020.1
20180619143022 54 169 8.0 13.0 0.00 0.00 0.00 92 1020.1
20180619142908 54 163 8.0 13.0 0.00 0.00 0.00 92 1020.1
20180619142841 54 181 8.0 13.0 0.00 0.00 0.00 91 1020.1
20180619142728 54 180 9.0 13.0 0.00 0.00 0.00 92 1020.1
20180619142615 54 174 10.0 13.0 0.00 0.00 0.00 92 1020.1
20180619142543 54 175 10.0 13.0 0.00 0.00 0.00 92 1020.1
20180619142509 54 163 10.0 12.0 0.00 0.00 0.00 92 1020.0
20180619142313 54 179 10.0 12.0 0.00 0.00 0.00 91 1020.0
20180619142241 54 153 9.0 12.0 0.00 0.00 0.00 91 1020.1
20180619142109 54 191 8.0 11.0 0.00 0.00 0.00 92 1020.1
20180619142013 54 182 7.0 12.0 0.00 0.00 0.00 92 1020.0
20180619141942 54 177 8.0 12.0 0.00 0.00 0.00 92 1020.0
20180619141828 54 185 7.0 12.0 0.00 0.00 0.00 92 1020.0
20180619141714 54 163 7.0 12.0 0.00 0.00 0.00 92 1019.9
20180619141640 54 177 8.0 12.0 0.00 0.00 0.00 92 1019.9
20180619141523 54 178 8.0 12.0 0.00 0.00 0.00 91 1020.0
20180619141415 54 175 9.0 12.0 0.00 0.00 0.00 91 1019.9
20180619141321 54 193 10.0 12.0 0.00 0.00 0.00 91 1019.9
20180619141208 54 175 9.0 12.0 0.00 0.00 0.00 92 1019.9
20180619141115 54 171 7.0 12.0 0.00 0.00 0.00 92 1019.9
20180619141020 54 194 5.0 12.0 0.00 0.00 0.00 92 1019.9
20180619140911 54 207 7.0 12.0 0.00 0.00 0.00 92 1019.9
20180619140818 54 190 9.0 12.0 0.00 0.00 0.00 92 1019.9
20180619140725 54 176 10.0 12.0 0.00 0.00 0.00 92 1019.9
20180619140610 54 158 10.0 12.0 0.00 0.00 0.00 91 1020.0
20180619140533 54 153 8.0 11.0 0.00 0.00 0.00 91 1019.9
20180619140440 54 163 7.0 11.0 0.00 0.00 0.00 91 1019.9
20180619140324 54 167 7.0 11.0 0.00 0.00 0.00 91 1019.9
20180619140215 54 187 7.0 11.0 0.00 0.00 0.00 91 1019.9
20180619140144 54 189 8.0 11.0 0.00 0.00 0.00 91 1019.8
20180619140028 54 199 8.0 11.0 0.00 0.00 0.00 91 1019.9
20180619135934 54 189 8.0 11.0 0.00 0.00 0.00 92 1019.9
20180619135821 54 188 7.0 11.0 0.00 0.00 0.00 92 1019.9
20180619135728 54 182 8.0 11.0 0.00 0.00 0.00 91 1019.9
20180619135618 54 192 7.0 11.0 0.00 0.00 0.00 91 1019.9
20180619135522 54 163 5.0 11.0 0.00 0.00 0.00 91 1019.9
20180619135409 54 184 5.0 11.0 0.00 0.00 0.00 91 1019.9
20180619135336 54 163 5.0 11.0 0.00 0.00 0.00 91 1019.9
20180619135242 54 194 5.0 11.0 0.00 0.00 0.00 92 1019.9
20180619135148 54 188 6.0 11.0 0.00 0.00 0.00 92 1019.9
20180619135033 54 173 8.0 11.0 0.00 0.00 0.00 92 1019.9
20180619134923 54 186 8.0 11.0 0.00 0.00 0.00 92 1019.9
20180619134831 54 168 9.0 11.0 0.00 0.00 0.00 92 1019.9
20180619134716 54 195 9.0 11.0 0.00 0.00 0.00 93 1019.9
20180619134644 54 171 9.0 11.0 0.00 0.00 0.00 92 1019.8
20180619134527 54 163 9.0 11.0 0.00 0.00 0.00 92 1019.8
20180619134413 54 153 7.0 11.0 0.00 0.00 0.00 91 1019.9
20180619134320 54 153 6.0 11.0 0.00 0.00 0.00 91 1019.9
20180619134210 54 163 7.0 11.0 0.00 0.00 0.00 91 1019.9
20180619134117 54 171 7.0 11.0 0.00 0.00 0.00 91 1019.9
20180619134020 54 163 9.0 11.0 0.00 0.00 0.00 91 1019.9
20180619133927 54 175 10.0 11.0 0.00 0.00 0.00 91 1019.9
20180619133812 54 175 8.0 11.0 0.00 0.00 0.00 91 1019.9
20180619133723 54 158 7.0 11.0 0.00 0.00 0.00 91 1020.0
20180619133608 54 163 7.0 11.0 0.00 0.00 0.00 91 1020.0
20180619133533 54 184 6.0 11.0 0.00 0.00 0.00 91 1020.0
20180619133418 54 163 6.0 11.0 0.00 0.00 0.00 92 1020.0
20180619133345 54 184 6.0 11.0 0.00 0.00 0.00 91 1020.0
20180619133231 54 178 6.0 11.0 0.00 0.00 0.00 91 1020.0
20180619133118 54 194 8.0 11.0 0.00 0.00 0.00 92 1019.9
20180619133027 54 176 8.0 11.0 0.00 0.00 0.00 92 1020.0
20180619132935 54 163 7.0 11.0 0.00 0.00 0.00 92 1019.9
20180619132821 54 171 5.0 11.0 0.00 0.00 0.00 92 1020.0
20180619132749 54 177 5.0 11.0 0.00 0.00 0.00 92 1020.0
20180619132614 54 174 5.0 11.0 0.00 0.00 0.00 92 1020.0
20180619132517 54 181 7.0 11.0 0.00 0.00 0.00 92 1019.9
20180619132425 54 174 8.0 11.0 0.00 0.00 0.00 92 1019.9
20180619132315 54 183 9.0 11.0 0.00 0.00 0.00 92 1020.0
20180619132222 54 171 8.0 11.0 0.00 0.00 0.00 91 1019.9
20180619132150 54 167 7.0 11.0 0.00 0.00 0.00 91 1019.9
20180619132032 54 196 5.0 11.0 0.00 0.00 0.00 92 1019.9
20180619131919 54 192 4.0 11.0 0.00 0.00 0.00 92 1019.9
20180619131826 54 204 4.0 11.0 0.00 0.00 0.00 92 1019.9
20180619131717 54 211 6.0 13.0 0.00 0.00 0.00 92 1019.8
20180619131624 54 171 8.0 14.0 0.00 0.00 0.00 92 1019.9
20180619131508 54 167 9.0 14.0 0.00 0.00 0.00 92 1019.9
20180619131415 54 186 8.0 14.0 0.00 0.00 0.00 92 1019.8
20180619131323 54 181 7.0 14.0 0.00 0.00 0.00 92 1019.8
20180619131213 54 181 8.0 14.0 0.00 0.00 0.00 91 1019.9
20180619131120 54 171 9.0 14.0 0.00 0.00 0.00 92 1019.8
20180619131048 54 175 10.0 14.0 0.00 0.00 0.00 92 1019.9
20180619130913 54 163 11.0 14.0 0.00 0.00 0.00 92 1019.9
20180619130819 54 169 11.0 14.0 0.00 0.00 0.00 92 1019.8
20180619130747 54 176 8.0 12.0 0.00 0.00 0.00 92 1019.8
20180619130633 54 180 8.0 12.0 0.00 0.00 0.00 92 1019.8
20180619130555 54 181 8.0 12.0 0.00 0.00 0.00 91 1019.7
20180619130428 54 187 8.0 12.0 0.00 0.00 0.00 91 1019.7
20180619130315 54 167 8.0 14.0 0.00 0.00 0.00 92 1019.7
20180619130222 54 186 9.0 14.0 0.00 0.00 0.00 92 1019.7
20180619130111 54 173 8.0 14.0 0.00 0.00 0.00 92 1019.6
20180619130015 54 174 7.0 14.0 0.00 0.00 0.00 92 1019.7
20180619125925 54 194 9.0 14.0 0.00 0.00 0.00 92 1019.7
20180619125812 54 188 8.0 14.0 0.00 0.00 0.00 92 1019.7
20180619125719 54 167 7.0 14.0 0.00 0.00 0.00 92 1019.6
20180619125627 54 153 10.0 14.0 0.00 0.00 0.00 92 1019.5
20180619125511 54 163 11.0 14.0 0.00 0.00 0.00 92 1019.6
20180619125439 54 170 10.0 13.0 0.00 0.00 0.00 92 1019.6
20180619125349 54 167 10.0 13.0 0.00 0.00 0.00 92 1019.6
20180619125235 54 172 10.0 13.0 0.00 0.00 0.00 92 1019.6
20180619125121 54 184 9.0 13.0 0.00 0.00 0.00 92 1019.6
20180619125025 54 170 8.0 13.0 0.00 0.00 0.00 92 1019.6
20180619124912 54 196 9.0 13.0 0.00 0.00 0.00 92 1019.6
20180619124839 54 173 9.0 13.0 0.00 0.00 0.00 92 1019.6
20180619124745 54 163 10.0 13.0 0.00 0.00 0.00 92 1019.6
20180619124615 54 168 10.0 13.0 0.00 0.00 0.00 91 1019.6
20180619124519 54 167 9.0 13.0 0.00 0.00 0.00 92 1019.6
20180619124426 54 171 7.0 12.0 0.00 0.00 0.00 92 1019.6
20180619124314 54 184 8.0 12.0 0.00 0.00 0.00 91 1019.6
20180619124222 54 188 9.0 12.0 0.00 0.00 0.00 91 1019.6
20180619124150 54 184 9.0 12.0 0.00 0.00 0.00 91 1019.6
20180619124016 54 173 10.0 12.0 0.00 0.00 0.00 91 1019.6
20180619123923 54 194 8.0 12.0 0.00 0.00 0.00 91 1019.5
20180619123851 54 163 7.0 11.0 0.00 0.00 0.00 91 1019.5
20180619123715 54 186 7.0 11.0 0.00 0.00 0.00 91 1019.6
20180619123621 54 179 8.0 11.0 0.00 0.00 0.00 91 1019.6
20180619123526 54 171 7.0 11.0 0.00 0.00 0.00 91 1019.5
20180619123416 54 176 6.0 11.0 0.00 0.00 0.00 91 1019.6
20180619123344 54 192 7.0 11.0 0.00 0.00 0.00 92 1019.6
20180619123210 54 182 7.0 11.0 0.00 0.00 0.00 92 1019.5
20180619123119 54 209 8.0 11.0 0.00 0.00 0.00 92 1019.5
20180619123046 54 204 6.0 11.0 0.00 0.00 0.00 92 1019.6
20180619122913 54 182 5.0 11.0 0.00 0.00 0.00 91 1019.5
20180619122841 54 215 6.0 11.0 0.00 0.00 0.00 92 1019.4
20180619122731 54 192 6.0 12.0 0.00 0.00 0.00 91 1019.5
20180619122619 54 175 6.0 12.0 0.00 0.00 0.00 91 1019.5
20180619122524 54 204 7.0 12.0 0.00 0.00 0.00 91 1019.4
20180619122431 54 163 7.0 12.0 0.00 0.00 0.00 91 1019.5
20180619122338 54 194 8.0 12.0 0.00 0.00 0.00 91 1019.5
20180619122223 54 188 8.0 12.0 0.00 0.00 0.00 92 1019.4
20180619122131 54 190 7.0 12.0 0.00 0.00 0.00 92 1019.5
20180619122040 54 153 8.0 12.0 0.00 0.00 0.00 92 1019.4
20180619121926 54 182 10.0 12.0 0.00 0.00 0.00 91 1019.4
20180619121813 54 191 10.0 12.0 0.00 0.00 0.00 91 1019.4
20180619121721 54 153 9.0 12.0 0.00 0.00 0.00 91 1019.5
20180619121629 54 163 7.0 12.0 0.00 0.00 0.00 91 1019.4
20180619121511 54 177 7.0 12.0 0.00 0.00 0.00 91 1019.5
20180619121424 54 177 8.0 12.0 0.00 0.00 0.00 91 1019.4
20180619121311 54 178 9.0 12.0 0.00 0.00 0.00 91 1019.4
20180619121238 54 169 7.0 12.0 0.00 0.00 0.00 91 1019.4
20180619121124 54 182 4.0 11.0 0.00 0.00 0.00 91 1019.3
20180619121008 54 163 6.0 11.0 0.00 0.00 0.00 91 1019.3
20180619120916 54 211 9.0 11.0 0.00 0.00 0.00 92 1019.3
20180619120827 54 163 9.0 11.0 0.00 0.00 0.00 92 1019.3
20180619120714 54 158 8.0 10.0 0.00 0.00 0.00 91 1019.3
20180619120620 54 163 7.0 9.0 0.00 0.00 0.00 91 1019.3
20180619120550 54 178 7.0 9.0 0.00 0.00 0.00 91 1019.3
20180619120414 54 169 7.0 9.0 0.00 0.00 0.00 91 1019.3
20180619120321 54 175 5.0 9.0 0.00 0.00 0.00 91 1019.4
20180619120233 54 198 4.0 9.0 0.00 0.00 0.00 91 1019.3
20180619120119 54 222 4.0 9.0 0.00 0.00 0.00 91 1019.3
20180619120043 54 198 4.0 10.0 0.00 0.00 0.00 91 1019.3
20180619115909 54 201 3.0 10.0 0.00 0.00 0.00 91 1019.3
20180619115816 54 188 4.0 10.0 0.00 0.00 0.00 91 1019.3
20180619115746 54 192 4.0 10.0 0.00 0.00 0.00 91 1019.4
20180619115611 54 196 4.0 10.0 0.00 0.00 0.00 91 1019.3
20180619115520 54 198 5.0 10.0 0.00 0.00 0.00 91 1019.2
20180619115429 54 230 5.0 12.0 0.00 0.00 0.00 91 1019.2
20180619115316 54 183 6.0 12.0 0.00 0.00 0.00 91 1019.3
20180619115245 54 178 7.0 12.0 0.00 0.00 0.00 91 1019.2
20180619115110 54 184 6.0 12.0 0.00 0.00 0.00 91 1019.3
20180619115013 54 182 6.0 12.0 0.00 0.00 0.00 91 1019.3
20180619114925 54 189 6.0 12.0 0.00 0.00 0.00 91 1019.3
20180619114834 54 173 6.0 12.0 0.00 0.00 0.00 91 1019.3
20180619114740 54 216 7.0 12.0 0.00 0.00 0.00 91 1019.2
20180619114646 54 175 9.0 12.0 0.00 0.00 0.00 91 1019.2
20180619114528 54 163 9.0 12.0 0.00 0.00 0.00 91 1019.2
20180619114435 54 179 7.0 12.0 0.00 0.00 0.00 91 1019.3
20180619114322 54 163 5.0 12.0 0.00 0.00 0.00 91 1019.3
20180619114234 54 168 7.0 12.0 0.00 0.00 0.00 91 1019.3
20180619114121 54 171 9.0 12.0 0.00 0.00 0.00 91 1019.3
20180619114024 54 177 10.0 12.0 0.00 0.00 0.00 91 1019.3
20180619113910 54 171 8.0 12.0 0.00 0.00 0.00 91 1019.3
20180619113838 54 163 6.0 9.0 0.00 0.00 0.00 91 1019.3
20180619113725 54 163 6.0 9.0 0.00 0.00 0.00 91 1019.3
20180619113631 54 189 6.0 10.0 0.00 0.00 0.00 91 1019.2
20180619113537 54 170 5.0 11.0 0.00 0.00 0.00 91 1019.2
20180619113445 54 173 4.0 11.0 0.00 0.00 0.00 91 1019.3
20180619113311 54 204 4.0 11.0 0.00 0.00 0.00 91 1019.3
20180619113217 54 186 4.0 11.0 0.00 0.00 0.00 91 1019.3
20180619113124 54 202 4.0 11.0 0.00 0.00 0.00 91 1019.4
20180619113029 54 183 5.0 11.0 0.00 0.00 0.00 91 1019.4
20180619112921 54 172 7.0 11.0 0.00 0.00 0.00 91 1019.4
20180619112829 54 183 8.0 11.0 0.00 0.00 0.00 91 1019.4
20180619112716 54 173 7.0 11.0 0.00 0.00 0.00 92 1019.5
20180619112623 54 174 5.0 10.0 0.00 0.00 0.00 92 1019.3
20180619112528 54 212 4.0 10.0 0.00 0.00 0.00 91 1019.3
20180619112414 54 211 5.0 11.0 0.00 0.00 0.00 91 1019.3
20180619112346 54 175 5.0 12.0 0.00 0.00 0.00 91 1019.4
20180619112212 54 182 5.0 12.0 0.00 0.00 0.00 91 1019.3
20180619112119 54 192 5.0 12.0 0.00 0.00 0.00 92 1019.3
20180619112022 54 214 6.0 12.0 0.00 0.00 0.00 92 1019.3
20180619111928 54 208 8.0 12.0 0.00 0.00 0.00 92 1019.3
20180619111814 54 163 8.0 12.0 0.00 0.00 0.00 92 1019.4
20180619111726 54 177 9.0 12.0 0.00 0.00 0.00 91 1019.4
20180619111632 54 173 8.0 14.0 0.00 0.00 0.00 92 1019.4
20180619111534 54 167 6.0 14.0 0.00 0.00 0.00 92 1019.5
20180619111420 54 163 4.0 14.0 0.00 0.00 0.00 91 1019.5
20180619111328 54 190 4.0 14.0 0.00 0.00 0.00 91 1019.5
20180619111214 54 186 6.0 14.0 0.00 0.00 0.00 91 1019.4
20180619111126 54 184 8.0 14.0 0.00 0.00 0.00 91 1019.5
20180619111009 54 169 9.0 14.0 0.00 0.00 0.00 92 1019.3
20180619110937 54 189 10.0 14.0 0.00 0.00 0.00 92 1019.4
20180619110823 54 167 9.0 14.0 0.00 0.00 0.00 91 1019.4
20180619110709 54 177 8.0 12.0 0.00 0.00 0.00 91 1019.4
20180619110617 54 170 9.0 12.0 0.00 0.00 0.00 91 1019.4
20180619110539 54 170 10.0 12.0 0.00 0.00 0.00 91 1019.4
20180619110428 54 173 10.0 12.0 0.00 0.00 0.00 91 1019.4
20180619110335 54 167 10.0 12.0 0.00 0.00 0.00 92 1019.4
20180619110221 54 163 8.0 11.0 0.00 0.00 0.00 91 1019.3
20180619110109 54 175 6.0 11.0 0.00 0.00 0.00 91 1019.3
20180619110012 54 201 8.0 11.0 0.00 0.00 0.00 91 1019.3
20180619105920 54 191 9.0 11.0 0.00 0.00 0.00 91 1019.3
20180619105810 54 171 9.0 11.0 0.00 0.00 0.00 91 1019.4
20180619105717 54 169 8.0 11.0 0.00 0.00 0.00 91 1019.2
20180619105626 54 175 8.0 11.0 0.00 0.00 0.00 91 1019.3
20180619105508 54 169 6.0 10.0 0.00 0.00 0.00 92 1019.2
20180619105415 54 188 6.0 10.0 0.00 0.00 0.00 92 1019.2
20180619105325 54 176 6.0 10.0 0.00 0.00 0.00 91 1019.3
20180619105212 54 193 5.0 10.0 0.00 0.00 0.00 91 1019.2
20180619105118 54 194 5.0 10.0 0.00 0.00 0.00 91 1019.3
20180619105025 54 194 5.0 10.0 0.00 0.00 0.00 91 1019.2
20180619104949 54 214 4.0 10.0 0.00 0.00 0.00 91 1019.2
20180619104815 54 190 4.0 10.0 0.00 0.00 0.00 92 1019.3
20180619104729 54 190 4.0 10.0 0.00 0.00 0.00 92 1019.3
20180619104615 54 200 6.0 10.0 0.00 0.00 0.00 92 1019.3
20180619104517 54 163 8.0 12.0 0.00 0.00 0.00 92 1019.3
20180619104424 54 163 6.0 12.0 0.00 0.00 0.00 92 1019.3
20180619104332 54 163 6.0 12.0 0.00 0.00 0.00 92 1019.3
20180619104218 54 184 7.0 13.0 0.00 0.00 0.00 92 1019.3
20180619104130 54 163 6.0 13.0 0.00 0.00 0.00 91 1019.3
20180619104014 54 153 6.0 13.0 0.00 0.00 0.00 91 1019.3
20180619103921 54 167 6.0 13.0 0.00 0.00 0.00 91 1019.3
20180619103828 54 188 8.0 13.0 0.00 0.00 0.00 91 1019.3
20180619103714 54 197 10.0 13.0 0.00 0.00 0.00 91 1019.3
20180619103622 54 182 10.0 13.0 0.00 0.00 0.00 91 1019.3
20180619103528 54 188 10.0 13.0 0.00 0.00 0.00 92 1019.3
20180619103415 54 175 9.0 13.0 0.00 0.00 0.00 91 1019.2
20180619103322 54 167 8.0 12.0 0.00 0.00 0.00 91 1019.3
20180619103230 54 180 8.0 12.0 0.00 0.00 0.00 91 1019.3
20180619103118 54 163 8.0 12.0 0.00 0.00 0.00 91 1019.3
20180619103023 54 163 8.0 12.0 0.00 0.00 0.00 92 1019.4
20180619102937 54 170 7.0 11.0 0.00 0.00 0.00 92 1019.3
20180619102824 54 169 6.0 11.0 0.00 0.00 0.00 92 1019.4
20180619102711 54 174 6.0 11.0 0.00 0.00 0.00 91 1019.4
20180619102618 54 180 7.0 11.0 0.00 0.00 0.00 91 1019.3
20180619102521 54 173 7.0 11.0 0.00 0.00 0.00 91 1019.3
20180619102428 54 163 6.0 10.0 0.00 0.00 0.00 91 1019.3
20180619102319 54 163 5.0 10.0 0.00 0.00 0.00 91 1019.3
20180619102228 54 190 5.0 10.0 0.00 0.00 0.00 91 1019.3
20180619102114 54 219 4.0 11.0 0.00 0.00 0.00 91 1019.2
20180619102017 54 225 4.0 11.0 0.00 0.00 0.00 91 1019.3
20180619101925 54 176 6.0 11.0 0.00 0.00 0.00 91 1019.3
20180619101814 54 194 6.0 11.0 0.00 0.00 0.00 91 1019.2
20180619101742 54 176 7.0 11.0 0.00 0.00 0.00 92 1019.2
20180619101650 54 163 8.0 11.0 0.00 0.00 0.00 91 1019.2
20180619101511 54 163 8.0 11.0 0.00 0.00 0.00 91 1019.2
20180619101418 54 169 8.0 11.0 0.00 0.00 0.00 91 1019.2
20180619101325 54 175 8.0 11.0 0.00 0.00 0.00 91 1019.2
20180619101233 54 163 8.0 11.0 0.00 0.00 0.00 92 1019.2
20180619101140 54 177 8.0 11.0 0.00 0.00 0.00 92 1019.3
20180619101027 54 171 8.0 11.0 0.00 0.00 0.00 91 1019.3
20180619100935 54 163 8.0 11.0 0.00 0.00 0.00 91 1019.2
20180619100823 54 173 6.0 11.0 0.00 0.00 0.00 91 1019.3
20180619100729 54 179 5.0 11.0 0.00 0.00 0.00 91 1019.3
20180619100636 54 175 6.0 11.0 0.00 0.00 0.00 91 1019.3
20180619100540 54 188 8.0 11.0 0.00 0.00 0.00 91 1019.3
20180619100424 54 173 8.0 11.0 0.00 0.00 0.00 91 1019.3
20180619100314 54 163 7.0 11.0 0.00 0.00 0.00 91 1019.3
20180619100222 54 163 7.0 11.0 0.00 0.00 0.00 91 1019.3
20180619100150 54 171 7.0 11.0 0.00 0.00 0.00 91 1019.3
20180619100032 54 198 7.0 11.0 0.00 0.00 0.00 91 1019.3
20180619095917 54 181 6.0 11.0 0.00 0.00 0.00 91 1019.3
20180619095824 54 163 4.0 10.0 0.00 0.00 0.00 91 1019.1
20180619095731 54 219 5.0 8.0 0.00 0.00 0.00 91 1019.2
20180619095623 54 177 5.0 7.0 0.00 0.00 0.00 92 1019.2
20180619095527 54 188 4.0 6.0 0.00 0.00 0.00 91 1019.2
20180619095413 54 187 4.0 6.0 0.00 0.00 0.00 91 1019.2
20180619095321 54 179 4.0 8.0 0.00 0.00 0.00 91 1019.2
20180619095229 54 207 4.0 10.0 0.00 0.00 0.00 91 1019.2
20180619095136 54 181 4.0 10.0 0.00 0.00 0.00 91 1019.3
20180619095024 54 185 4.0 10.0 0.00 0.00 0.00 91 1019.3
20180619094948 54 182 5.0 10.0 0.00 0.00 0.00 91 1019.3
20180619094814 54 181 5.0 11.0 0.00 0.00 0.00 91 1019.3
20180619094721 54 173 4.0 12.0 0.00 0.00 0.00 91 1019.3
20180619094649 54 169 5.0 12.0 0.00 0.00 0.00 91 1019.3
20180619094535 54 167 8.0 12.0 0.00 0.00 0.00 91 1019.4
20180619094440 54 163 7.0 12.0 0.00 0.00 0.00 91 1019.3
20180619094310 54 163 6.0 12.0 0.00 0.00 0.00 92 1019.3
20180619094238 54 205 7.0 12.0 0.00 0.00 0.00 92 1019.3
20180619094124 54 163 8.0 12.0 0.00 0.00 0.00 92 1019.4
20180619094028 54 163 9.0 12.0 0.00 0.00 0.00 92 1019.4
20180619093914 54 158 6.0 12.0 0.00 0.00 0.00 92 1019.3
20180619093821 54 173 5.0 12.0 0.00 0.00 0.00 92 1019.3
20180619093713 54 177 7.0 12.0 0.00 0.00 0.00 91 1019.3
20180619093620 54 188 8.0 13.0 0.00 0.00 0.00 91 1019.3
20180619093522 54 177 8.0 13.0 0.00 0.00 0.00 91 1019.3
20180619093430 54 175 9.0 13.0 0.00 0.00 0.00 91 1019.3
20180619093315 54 184 9.0 13.0 0.00 0.00 0.00 91 1019.3
20180619093221 54 174 9.0 13.0 0.00 0.00 0.00 91 1019.2
20180619093113 54 184 9.0 13.0 0.00 0.00 0.00 91 1019.3
20180619093016 55 178 9.0 13.0 0.00 0.00 0.00 91 1019.3
20180619092943 55 185 10.0 13.0 0.00 0.00 0.00 91 1019.4
20180619092830 55 202 9.0 13.0 0.00 0.00 0.00 91 1019.4
20180619092715 55 203 8.0 12.0 0.00 0.00 0.00 91 1019.3
20180619092623 54 186 7.0 12.0 0.00 0.00 0.00 91 1019.3
20180619092533 54 190 8.0 12.0 0.00 0.00 0.00 91 1019.3
20180619092420 54 175 8.0 10.0 0.00 0.00 0.00 91 1019.3
20180619092327 54 169 6.0 10.0 0.00 0.00 0.00 91 1019.3
20180619092233 54 163 5.0 10.0 0.00 0.00 0.00 91 1019.3
20180619092121 54 175 4.0 11.0 0.00 0.00 0.00 91 1019.3
20180619092049 54 189 4.0 14.0 0.00 0.00 0.00 91 1019.3
20180619091923 54 225 5.0 14.0 0.00 0.00 0.00 91 1019.3
20180619091712 54 171 8.0 14.0 0.00 0.00 0.00 92 1019.3
20180619091618 55 184 7.0 14.0 0.00 0.00 0.00 92 1019.4
20180619091431 54 168 7.0 14.0 0.00 0.00 0.00 92 1019.4
20180619091315 54 188 10.0 14.0 0.00 0.00 0.00 91 1019.5
20180619091243 54 177 11.0 14.0 0.00 0.00 0.00 91 1019.5
20180619091134 54 167 9.0 13.0 0.00 0.00 0.00 91 1019.5
20180619091036 54 190 8.0 12.0 0.00 0.00 0.00 91 1019.5
20180619090923 55 177 8.0 12.0 0.00 0.00 0.00 91 1019.6
20180619090810 55 201 8.0 12.0 0.00 0.00 0.00 91 1019.5
20180619090718 55 181 8.0 12.0 0.00 0.00 0.00 91 1019.5
20180619090626 55 179 7.0 13.0 0.00 0.00 0.00 91 1019.5
20180619090513 54 171 7.0 15.0 0.00 0.00 0.00 91 1019.5
20180619090443 55 184 7.0 15.0 0.00 0.00 0.00 92 1019.5
20180619090328 55 188 7.0 15.0 0.00 0.00 0.00 92 1019.5
20180619090214 55 188 9.0 15.0 0.00 0.00 0.00 92 1019.5
20180619090121 55 182 9.0 15.0 0.00 0.00 0.00 92 1019.4
20180619090047 54 171 10.0 15.0 0.00 0.00 0.00 92 1019.4
20180619085949 54 172 11.0 15.0 0.00 0.00 0.00 92 1019.4
20180619085818 54 172 12.0 15.0 0.00 0.00 0.00 91 1019.5
20180619085726 54 178 11.0 16.0 0.00 0.00 0.00 92 1019.4
20180619085612 54 186 12.0 16.0 0.00 0.00 0.00 92 1019.3
20180619085424 54 191 12.0 16.0 0.00 0.00 0.00 91 1019.3
20180619085316 55 182 10.0 16.0 0.00 0.00 0.00 92 1019.3
20180619085243 54 179 9.0 16.0 0.00 0.00 0.00 91 1019.4
20180619085110 55 180 11.0 16.0 0.00 0.00 0.00 91 1019.4
20180619085015 55 175 13.0 16.0 0.00 0.00 0.00 92 1019.3
20180619084923 55 171 14.0 16.0 0.00 0.00 0.00 92 1019.3
20180619084809 55 158 11.0 16.0 0.00 0.00 0.00 92 1019.3
20180619084720 55 174 10.0 16.0 0.00 0.00 0.00 91 1019.4
20180619084609 55 172 11.0 16.0 0.00 0.00 0.00 91 1019.3
20180619084514 55 163 10.0 16.0 0.00 0.00 0.00 92 1019.3
20180619084442 55 190 9.0 16.0 0.00 0.00 0.00 92 1019.3
20180619084349 55 190 10.0 16.0 0.00 0.00 0.00 92 1019.3
20180619084215 55 175 12.0 16.0 0.00 0.00 0.00 92 1019.4
20180619084123 55 180 11.0 16.0 0.00 0.00 0.00 92 1019.5
20180619084030 55 186 9.0 16.0 0.00 0.00 0.00 92 1019.5
20180619083937 55 169 9.0 16.0 0.00 0.00 0.00 92 1019.5
20180619083824 55 193 10.0 16.0 0.00 0.00 0.00 92 1019.5
20180619083710 55 163 11.0 16.0 0.00 0.00 0.00 91 1019.4
20180619083618 55 163 10.0 16.0 0.00 0.00 0.00 92 1019.5
20180619083544 55 167 10.0 16.0 0.00 0.00 0.00 92 1019.5
20180619083430 55 170 12.0 16.0 0.00 0.00 0.00 92 1019.5
20180619083319 55 163 12.0 16.0 0.00 0.00 0.00 91 1019.5
20180619083226 55 172 11.0 16.0 0.00 0.00 0.00 91 1019.5
20180619083116 55 167 10.0 16.0 0.00 0.00 0.00 92 1019.3
20180619083019 55 171 12.0 16.0 0.00 0.00 0.00 92 1019.5
20180619082927 55 158 12.0 16.0 0.00 0.00 0.00 92 1019.5
20180619082835 54 163 11.0 16.0 0.00 0.00 0.00 92 1019.5
20180619082725 54 175 12.0 17.0 0.00 0.00 0.00 91 1019.5
20180619082613 54 174 12.0 17.0 0.00 0.00 0.00 92 1019.5
20180619082536 55 182 12.0 18.0 0.00 0.00 0.00 92 1019.5
20180619082443 55 168 12.0 18.0 0.00 0.00 0.00 92 1019.6
20180619082310 54 173 12.0 18.0 0.00 0.00 0.00 92 1019.5
20180619082217 54 158 11.0 18.0 0.00 0.00 0.00 92 1019.5
20180619082144 55 192 10.0 18.0 0.00 0.00 0.00 92 1019.5
20180619082011 55 171 11.0 18.0 0.00 0.00 0.00 92 1019.6
20180619081918 55 189 12.0 18.0 0.00 0.00 0.00 92 1019.6
20180619081826 55 189 12.0 18.0 0.00 0.00 0.00 92 1019.6
20180619081712 54 169 14.0 18.0 0.00 0.00 0.00 91 1019.6
20180619081621 54 169 15.0 18.0 0.00 0.00 0.00 91 1019.7
20180619081545 54 172 14.0 18.0 0.00 0.00 0.00 91 1019.6
20180619081416 54 177 12.0 18.0 0.00 0.00 0.00 91 1019.7
20180619081343 54 163 12.0 18.0 0.00 0.00 0.00 91 1019.7
20180619081209 54 182 14.0 18.0 0.00 0.00 0.00 91 1019.6
20180619081117 54 169 15.0 18.0 0.00 0.00 0.00 91 1019.6
20180619081021 54 171 14.0 19.0 0.00 0.00 0.00 91 1019.6
20180619080912 55 175 13.0 19.0 0.00 0.00 0.00 91 1019.6
20180619080839 55 174 12.0 19.0 0.00 0.00 0.00 91 1019.7
20180619080745 55 221 11.0 19.0 0.00 0.00 0.00 91 1019.7
20180619080631 54 194 13.0 19.0 0.00 0.00 0.00 91 1019.6
20180619080534 54 194 13.0 19.0 0.00 0.00 0.00 91 1019.7
20180619080420 55 175 14.0 19.0 0.00 0.00 0.00 91 1019.7
20180619080325 55 172 15.0 19.0 0.00 0.00 0.00 91 1019.7
20180619080211 55 163 15.0 19.0 0.00 0.00 0.00 91 1019.8
20180619080123 55 182 14.0 18.0 0.00 0.00 0.00 91 1019.7
20180619080026 55 177 13.0 18.0 0.00 0.00 0.00 91 1019.7
20180619075913 55 188 14.0 18.0 0.00 0.00 0.00 91 1019.8
20180619075819 55 163 14.0 18.0 0.00 0.00 0.00 91 1019.7
20180619075725 55 163 13.0 18.0 0.00 0.00 0.00 91 1019.7
20180619075616 55 168 12.0 15.0 0.00 0.00 0.00 91 1019.7
20180619075521 55 190 11.0 15.0 0.00 0.00 0.00 91 1019.8
20180619075428 55 169 10.0 14.0 0.00 0.00 0.00 91 1019.8
20180619075315 55 184 11.0 14.0 0.00 0.00 0.00 91 1019.7
20180619075222 55 193 11.0 15.0 0.00 0.00 0.00 91 1019.6
20180619075110 55 163 10.0 17.0 0.00 0.00 0.00 91 1019.7
20180619075038 55 195 10.0 17.0 0.00 0.00 0.00 91 1019.7
20180619074924 55 153 10.0 17.0 0.00 0.00 0.00 91 1019.7
20180619074812 55 171 9.0 17.0 0.00 0.00 0.00 91 1019.7
20180619074740 55 170 9.0 17.0 0.00 0.00 0.00 91 1019.7
20180619074627 55 188 10.0 17.0 0.00 0.00 0.00 91 1019.7
20180619074510 55 173 11.0 17.0 0.00 0.00 0.00 91 1019.7
20180619074422 55 190 13.0 17.0 0.00 0.00 0.00 91 1019.8
20180619074328 55 180 14.0 17.0 0.00 0.00 0.00 91 1019.8
20180619074236 55 192 12.0 17.0 0.00 0.00 0.00 91 1019.7
20180619074122 55 177 11.0 17.0 0.00 0.00 0.00 91 1019.7
20180619074027 55 176 11.0 17.0 0.00 0.00 0.00 91 1019.8
20180619073914 55 186 12.0 17.0 0.00 0.00 0.00 90 1019.8
20180619073826 55 171 13.0 17.0 0.00 0.00 0.00 90 1019.8
20180619073734 55 194 14.0 17.0 0.00 0.00 0.00 90 1019.8
20180619073619 55 175 13.0 17.0 0.00 0.00 0.00 90 1019.7
20180619073522 55 186 12.0 17.0 0.00 0.00 0.00 90 1019.8
20180619073409 55 180 11.0 17.0 0.00 0.00 0.00 90 1019.8
20180619073336 55 198 12.0 17.0 0.00 0.00 0.00 90 1019.9
20180619073241 55 192 12.0 17.0 0.00 0.00 0.00 91 1019.9
20180619073114 55 182 12.0 17.0 0.00 0.00 0.00 91 1019.8
20180619073037 55 182 13.0 17.0 0.00 0.00 0.00 90 1019.8
20180619072923 55 168 13.0 17.0 0.00 0.00 0.00 91 1019.8
20180619072830 55 174 11.0 17.0 0.00 0.00 0.00 90 1019.8
20180619072715 55 175 11.0 17.0 0.00 0.00 0.00 90 1019.8
20180619072642 55 192 12.0 17.0 0.00 0.00 0.00 90 1019.8
20180619072548 55 201 13.0 19.0 0.00 0.00 0.00 90 1019.8
20180619072418 55 163 13.0 19.0 0.00 0.00 0.00 90 1019.9
20180619072326 55 167 14.0 19.0 0.00 0.00 0.00 90 1019.9
20180619072233 55 179 13.0 19.0 0.00 0.00 0.00 90 1019.9
20180619072139 55 153 13.0 19.0 0.00 0.00 0.00 90 1019.9
20180619072025 55 185 12.0 19.0 0.00 0.00 0.00 91 1019.8
20180619071949 55 158 12.0 19.0 0.00 0.00 0.00 91 1019.8
20180619071813 55 163 14.0 19.0 0.00 0.00 0.00 90 1019.9
20180619071724 55 187 14.0 19.0 0.00 0.00 0.00 91 1019.8
20180619071631 55 163 13.0 17.0 0.00 0.00 0.00 90 1019.8
20180619071515 55 186 13.0 17.0 0.00 0.00 0.00 90 1019.9
20180619071443 55 163 12.0 17.0 0.00 0.00 0.00 90 1019.9
20180619071329 55 179 12.0 17.0 0.00 0.00 0.00 90 1019.9
20180619071237 55 192 13.0 17.0 0.00 0.00 0.00 90 1019.9
20180619071122 55 169 13.0 17.0 0.00 0.00 0.00 91 1019.9
20180619071010 55 184 14.0 17.0 0.00 0.00 0.00 90 1019.9
20180619070916 55 163 14.0 17.0 0.00 0.00 0.00 90 1019.9
20180619070823 55 168 13.0 17.0 0.00 0.00 0.00 90 1019.9
20180619070733 55 158 12.0 17.0 0.00 0.00 0.00 90 1019.8
20180619070616 55 163 13.0 17.0 0.00 0.00 0.00 90 1019.8
20180619070530 55 181 13.0 17.0 0.00 0.00 0.00 90 1019.8
20180619070444 55 182 13.0 17.0 0.00 0.00 0.00 90 1019.8
20180619070313 55 181 13.0 17.0 0.00 0.00 0.00 90 1019.9
20180619070241 55 183 13.0 17.0 0.00 0.00 0.00 90 1019.8
20180619070148 55 175 13.0 17.0 0.00 0.00 0.00 90 1019.9
20180619070010 55 172 12.0 17.0 0.00 0.00 0.00 90 1019.9
20180619065917 55 177 13.0 17.0 0.00 0.00 0.00 90 1019.8
20180619065844 55 169 13.0 17.0 0.00 0.00 0.00 90 1019.9
20180619065714 55 180 14.0 17.0 0.00 0.00 0.00 90 1019.8
20180619065641 55 170 13.0 17.0 0.00 0.00 0.00 90 1019.8
20180619065524 55 184 13.0 17.0 0.00 0.00 0.00 90 1019.8
20180619065432 55 174 14.0 19.0 0.00 0.00 0.00 90 1019.9
20180619065338 55 163 14.0 19.0 0.00 0.00 0.00 90 1019.8
20180619065223 55 184 13.0 19.0 0.00 0.00 0.00 89 1019.8
20180619065150 55 174 12.0 19.0 0.00 0.00 0.00 90 1019.8
20180619065011 55 190 13.0 19.0 0.00 0.00 0.00 89 1019.8
20180619064943 55 170 13.0 20.0 0.00 0.00 0.00 89 1019.8
20180619064850 55 163 13.0 21.0 0.00 0.00 0.00 90 1019.8
20180619064715 55 163 15.0 21.0 0.00 0.00 0.00 90 1019.8
20180619064623 55 173 16.0 21.0 0.00 0.00 0.00 90 1019.8
20180619064525 55 163 17.0 21.0 0.00 0.00 0.00 90 1019.8
20180619064411 56 163 17.0 21.0 0.00 0.00 0.00 90 1019.8
20180619064323 56 163 16.0 21.0 0.00 0.00 0.00 90 1019.8
20180619064209 56 163 16.0 21.0 0.00 0.00 0.00 90 1019.8
20180619064117 55 182 17.0 21.0 0.00 0.00 0.00 90 1019.7
20180619064020 56 163 18.0 21.0 0.00 0.00 0.00 90 1019.8
20180619063929 56 163 16.0 21.0 0.00 0.00 0.00 90 1019.8
20180619063837 56 169 15.0 21.0 0.00 0.00 0.00 90 1019.8
20180619063727 56 175 15.0 20.0 0.00 0.00 0.00 89 1019.8
20180619063613 56 174 15.0 19.0 0.00 0.00 0.00 90 1019.7
20180619063537 56 163 16.0 19.0 0.00 0.00 0.00 90 1019.8
20180619063423 56 168 16.0 19.0 0.00 0.00 0.00 89 1019.9
20180619063309 56 163 16.0 19.0 0.00 0.00 0.00 90 1019.8
20180619063216 56 163 16.0 19.0 0.00 0.00 0.00 90 1019.8
20180619063145 56 163 16.0 19.0 0.00 0.00 0.00 90 1019.8
20180619063030 56 158 16.0 19.0 0.00 0.00 0.00 90 1019.8
20180619062936 56 163 15.0 19.0 0.00 0.00 0.00 89 1019.8
20180619062822 56 173 14.0 19.0 0.00 0.00 0.00 90 1019.7
20180619062749 56 163 14.0 19.0 0.00 0.00 0.00 89 1019.7
20180619062614 56 167 15.0 19.0 0.00 0.00 0.00 90 1019.8
20180619062537 56 180 16.0 19.0 0.00 0.00 0.00 90 1019.8
20180619062443 56 163 17.0 19.0 0.00 0.00 0.00 91 1019.8
20180619062349 56 163 16.0 19.0 0.00 0.00 0.00 90 1019.8
20180619062238 56 163 16.0 19.0 0.00 0.00 0.00 89 1019.8
20180619062146 56 163 16.0 19.0 0.00 0.00 0.00 89 1019.9
20180619062009 56 158 16.0 19.0 0.00 0.00 0.00 89 1019.9
20180619061935 56 163 16.0 18.0 0.00 0.00 0.00 90 1019.9
20180619061841 56 153 15.0 18.0 0.00 0.00 0.00 90 1019.9
20180619061726 56 177 15.0 18.0 0.00 0.00 0.00 90 1019.8
20180619061634 56 170 16.0 18.0 0.00 0.00 0.00 90 1019.8
20180619061537 56 171 17.0 18.0 0.00 0.00 0.00 90 1019.8
20180619061428 56 158 16.0 18.0 0.00 0.00 0.00 90 1019.9
20180619061315 56 158 15.0 18.0 0.00 0.00 0.00 90 1019.9
20180619061224 56 169 16.0 18.0 0.00 0.00 0.00 89 1019.9
20180619061132 56 167 15.0 18.0 0.00 0.00 0.00 89 1019.9
20180619061015 56 163 14.0 18.0 0.00 0.00 0.00 89 1019.9
20180619060923 56 163 14.0 18.0 0.00 0.00 0.00 89 1019.9
20180619060814 56 163 14.0 18.0 0.00 0.00 0.00 89 1019.9
20180619060742 56 174 13.0 18.0 0.00 0.00 0.00 89 1020.0
20180619060629 56 170 13.0 16.0 0.00 0.00 0.00 89 1020.0
20180619060532 56 167 13.0 16.0 0.00 0.00 0.00 89 1020.0
20180619060439 56 163 14.0 16.0 0.00 0.00 0.00 90 1019.9
20180619060343 56 167 14.0 16.0 0.00 0.00 0.00 89 1020.0
20180619060231 56 163 13.0 16.0 0.00 0.00 0.00 90 1019.9
20180619060120 56 170 12.0 16.0 0.00 0.00 0.00 89 1020.0
20180619060027 56 174 13.0 16.0 0.00 0.00 0.00 90 1020.0
20180619055913 56 169 13.0 16.0 0.00 0.00 0.00 89 1020.0
20180619055841 56 163 12.0 16.0 0.00 0.00 0.00 90 1020.0
20180619055726 56 175 12.0 14.0 0.00 0.00 0.00 90 1019.9
20180619055613 56 167 11.0 14.0 0.00 0.00 0.00 89 1019.9
20180619055537 56 171 11.0 14.0 0.00 0.00 0.00 89 1019.9
20180619055426 56 168 11.0 14.0 0.00 0.00 0.00 89 1019.9
20180619055313 56 173 11.0 14.0 0.00 0.00 0.00 89 1019.9
20180619055221 56 180 11.0 15.0 0.00 0.00 0.00 88 1019.9
20180619055128 56 172 11.0 15.0 0.00 0.00 0.00 88 1019.9
20180619055012 56 163 11.0 15.0 0.00 0.00 0.00 88 1019.9
20180619054918 56 163 11.0 15.0 0.00 0.00 0.00 88 1020.0
20180619054850 56 173 11.0 15.0 0.00 0.00 0.00 88 1020.0
20180619054716 56 170 11.0 15.0 0.00 0.00 0.00 88 1020.0
20180619054622 56 170 12.0 15.0 0.00 0.00 0.00 88 1019.8
20180619054525 56 158 13.0 15.0 0.00 0.00 0.00 88 1019.8
20180619054412 56 163 13.0 15.0 0.00 0.00 0.00 88 1019.8
20180619054319 56 169 13.0 15.0 0.00 0.00 0.00 88 1019.8
20180619054209 56 172 13.0 15.0 0.00 0.00 0.00 88 1019.9
20180619054117 56 173 12.0 15.0 0.00 0.00 0.00 88 1019.8
20180619054020 57 158 11.0 15.0 0.00 0.00 0.00 89 1019.9
20180619053926 56 169 11.0 15.0 0.00 0.00 0.00 88 1019.9
20180619053813 56 169 13.0 15.0 0.00 0.00 0.00 88 1019.9
20180619053724 56 172 13.0 15.0 0.00 0.00 0.00 88 1019.9
20180619053631 57 163 12.0 14.0 0.00 0.00 0.00 87 1019.9
20180619053513 57 163 11.0 15.0 0.00 0.00 0.00 87 1019.9
20180619053442 57 163 11.0 15.0 0.00 0.00 0.00 88 1019.9
20180619053327 57 163 10.0 15.0 0.00 0.00 0.00 87 1019.8
20180619053214 57 168 11.0 15.0 0.00 0.00 0.00 87 1019.8
20180619053122 57 163 11.0 15.0 0.00 0.00 0.00 87 1019.8
20180619053029 57 172 10.0 15.0 0.00 0.00 0.00 87 1019.8
20180619052914 57 171 11.0 15.0 0.00 0.00 0.00 87 1019.8
20180619052822 57 153 12.0 15.0 0.00 0.00 0.00 87 1019.8
20180619052728 57 167 12.0 15.0 0.00 0.00 0.00 88 1019.9
20180619052636 57 163 11.0 14.0 0.00 0.00 0.00 88 1019.8
20180619052519 57 163 11.0 14.0 0.00 0.00 0.00 88 1019.8
20180619052410 57 158 12.0 14.0 0.00 0.00 0.00 89 1019.8
20180619052318 57 167 12.0 14.0 0.00 0.00 0.00 89 1019.8
20180619052244 56 158 12.0 14.0 0.00 0.00 0.00 88 1019.8
20180619052110 56 169 12.0 14.0 0.00 0.00 0.00 88 1019.8
20180619052033 56 167 12.0 14.0 0.00 0.00 0.00 88 1019.9
20180619051919 56 167 12.0 14.0 0.00 0.00 0.00 88 1019.8
20180619051846 56 158 12.0 14.0 0.00 0.00 0.00 88 1019.9
20180619051715 56 158 12.0 14.0 0.00 0.00 0.00 88 1019.9
20180619051621 56 167 12.0 14.0 0.00 0.00 0.00 88 1019.8
20180619051548 56 163 12.0 14.0 0.00 0.00 0.00 88 1019.9
20180619051411 56 163 12.0 14.0 0.00 0.00 0.00 88 1019.9
20180619051317 57 163 12.0 13.0 0.00 0.00 0.00 88 1019.9
20180619051224 57 163 12.0 13.0 0.00 0.00 0.00 87 1019.9
20180619051112 57 163 12.0 13.0 0.00 0.00 0.00 87 1019.9
20180619051017 57 153 12.0 13.0 0.00 0.00 0.00 88 1019.9
20180619050943 57 158 11.0 13.0 0.00 0.00 0.00 87 1019.8
20180619050849 57 167 11.0 13.0 0.00 0.00 0.00 87 1019.8
20180619050735 57 163 11.0 13.0 0.00 0.00 0.00 86 1019.8
20180619050621 57 158 11.0 13.0 0.00 0.00 0.00 86 1019.8
20180619050524 57 153 10.0 12.0 0.00 0.00 0.00 86 1019.8
20180619050415 57 142 7.0 12.0 0.00 0.00 0.00 87 1019.8
20180619050322 57 140 3.0 9.0 0.00 0.00 0.00 84 1019.8
20180619050230 57 169 1.0 6.0 0.00 0.00 0.00 84 1019.8
20180619050118 57 169 1.0 8.0 0.00 0.00 0.00 84 1019.8
20180619050022 57 169 1.0 8.0 0.00 0.00 0.00 84 1019.8
20180619045912 57 169 2.0 8.0 0.00 0.00 0.00 84 1019.8
20180619045839 57 169 2.0 8.0 0.00 0.00 0.00 84 1019.8
20180619045724 57 169 2.0 8.0 0.00 0.00 0.00 84 1019.8
20180619045631 57 169 4.0 8.0 0.00 0.00 0.00 85 1019.8
20180619045514 57 169 5.0 9.0 0.00 0.00 0.00 85 1019.8
20180619045420 57 163 5.0 9.0 0.00 0.00 0.00 86 1019.9
20180619045326 57 153 6.0 9.0 0.00 0.00 0.00 85 1019.8
20180619045216 57 167 6.0 9.0 0.00 0.00 0.00 85 1019.9
20180619045145 57 163 6.0 9.0 0.00 0.00 0.00 85 1019.8
20180619045028 57 171 6.0 9.0 0.00 0.00 0.00 85 1019.9
20180619044916 57 176 6.0 9.0 0.00 0.00 0.00 85 1019.8
20180619044823 57 176 6.0 9.0 0.00 0.00 0.00 85 1019.8
20180619044731 57 163 4.0 9.0 0.00 0.00 0.00 84 1019.8
20180619044620 57 196 2.0 5.0 0.00 0.00 0.00 84 1019.8
20180619044524 57 205 2.0 5.0 0.00 0.00 0.00 84 1019.8
20180619044409 57 205 2.0 10.0 0.00 0.00 0.00 84 1019.8
20180619044315 57 205 2.0 10.0 0.00 0.00 0.00 85 1019.7
20180619044221 57 205 2.0 10.0 0.00 0.00 0.00 85 1019.7
20180619044148 57 205 2.0 10.0 0.00 0.00 0.00 85 1019.7
20180619044014 57 204 3.0 11.0 0.00 0.00 0.00 85 1019.6
20180619043940 57 211 4.0 11.0 0.00 0.00 0.00 85 1019.6
20180619043846 57 207 4.0 11.0 0.00 0.00 0.00 85 1019.6
20180619043731 57 192 5.0 12.0 0.00 0.00 0.00 85 1019.6
20180619043638 57 207 6.0 12.0 0.00 0.00 0.00 85 1019.6
20180619043519 57 211 6.0 12.0 0.00 0.00 0.00 85 1019.6
20180619043426 57 212 6.0 12.0 0.00 0.00 0.00 85 1019.6
20180619043313 57 215 8.0 12.0 0.00 0.00 0.00 85 1019.6
20180619043225 57 190 7.0 12.0 0.00 0.00 0.00 85 1019.6
20180619043114 57 213 6.0 12.0 0.00 0.00 0.00 85 1019.6
20180619043037 57 186 7.0 12.0 0.00 0.00 0.00 85 1019.6
20180619042924 57 226 6.0 12.0 0.00 0.00 0.00 85 1019.5
20180619042809 57 199 4.0 10.0 0.00 0.00 0.00 85 1019.6
20180619042737 57 211 4.0 10.0 0.00 0.00 0.00 85 1019.5
20180619042646 57 211 5.0 10.0 0.00 0.00 0.00 85 1019.5
20180619042513 57 225 5.0 10.0 0.00 0.00 0.00 85 1019.5
20180619042420 57 213 5.0 10.0 0.00 0.00 0.00 85 1019.5
20180619042347 57 211 5.0 10.0 0.00 0.00 0.00 85 1019.4
20180619042213 57 190 5.0 10.0 0.00 0.00 0.00 86 1019.4
20180619042141 57 192 6.0 10.0 0.00 0.00 0.00 86 1019.4
20180619042044 57 207 6.0 11.0 0.00 0.00 0.00 85 1019.3
20180619041913 57 195 7.0 11.0 0.00 0.00 0.00 85 1019.2
20180619041818 57 172 6.0 11.0 0.00 0.00 0.00 85 1019.3
20180619041745 57 206 6.0 11.0 0.00 0.00 0.00 85 1019.2
20180619041611 57 200 7.0 11.0 0.00 0.00 0.00 85 1019.3
20180619041515 57 190 8.0 11.0 0.00 0.00 0.00 85 1019.2
20180619041423 57 180 8.0 11.0 0.00 0.00 0.00 85 1019.2
20180619041351 57 177 9.0 11.0 0.00 0.00 0.00 85 1019.2
20180619041240 57 169 8.0 11.0 0.00 0.00 0.00 85 1019.1
20180619041147 57 181 7.0 10.0 0.00 0.00 0.00 85 1019.2
20180619041030 57 173 6.0 11.0 0.00 0.00 0.00 85 1019.2
20180619040937 57 186 5.0 12.0 0.00 0.00 0.00 85 1019.2
20180619040843 57 180 6.0 12.0 0.00 0.00 0.00 86 1019.2
20180619040710 57 192 7.0 12.0 0.00 0.00 0.00 86 1019.2
20180619040617 57 182 8.0 12.0 0.00 0.00 0.00 85 1019.1
20180619040547 57 170 7.0 12.0 0.00 0.00 0.00 85 1019.2
20180619040416 57 178 8.0 12.0 0.00 0.00 0.00 85 1019.2
20180619040322 57 174 8.0 12.0 0.00 0.00 0.00 85 1019.2
20180619040248 57 189 8.0 12.0 0.00 0.00 0.00 86 1019.2
20180619040115 57 163 8.0 12.0 0.00 0.00 0.00 85 1019.2
20180619035946 57 183 7.0 10.0 0.00 0.00 0.00 86 1019.2
20180619035816 57 177 8.0 10.0 0.00 0.00 0.00 85 1019.2
20180619035723 57 170 8.0 10.0 0.00 0.00 0.00 85 1019.1
20180619035629 57 187 8.0 12.0 0.00 0.00 0.00 85 1019.1
20180619035512 57 186 7.0 12.0 0.00 0.00 0.00 85 1019.2
20180619035418 57 174 7.0 12.0 0.00 0.00 0.00 86 1019.1
20180619035325 57 177 7.0 12.0 0.00 0.00 0.00 86 1019.2
20180619035235 57 177 7.0 12.0 0.00 0.00 0.00 86 1019.2
20180619035142 57 177 7.0 12.0 0.00 0.00 0.00 86 1019.2
20180619035045 57 153 7.0 12.0 0.00 0.00 0.00 86 1019.2
20180619034910 57 181 8.0 12.0 0.00 0.00 0.00 86 1019.3
20180619034816 57 174 8.0 12.0 0.00 0.00 0.00 86 1019.2
20180619034723 57 187 8.0 12.0 0.00 0.00 0.00 86 1019.2
20180619034629 57 188 9.0 12.0 0.00 0.00 0.00 86 1019.2
20180619034516 57 182 9.0 11.0 0.00 0.00 0.00 86 1019.2
20180619034423 57 171 9.0 11.0 0.00 0.00 0.00 86 1019.2
20180619034328 57 176 8.0 11.0 0.00 0.00 0.00 86 1019.2
20180619034215 57 163 6.0 12.0 0.00 0.00 0.00 86 1019.2
20180619034123 57 180 7.0 12.0 0.00 0.00 0.00 86 1019.1
20180619034025 57 175 8.0 12.0 0.00 0.00 0.00 86 1019.2
20180619033916 57 183 7.0 12.0 0.00 0.00 0.00 87 1019.1
20180619033824 57 163 7.0 12.0 0.00 0.00 0.00 86 1019.1
20180619033751 57 191 8.0 12.0 0.00 0.00 0.00 87 1019.1
20180619033616 57 197 9.0 12.0 0.00 0.00 0.00 86 1019.1
20180619033522 57 163 9.0 12.0 0.00 0.00 0.00 87 1019.1
20180619033429 57 202 9.0 12.0 0.00 0.00 0.00 87 1019.1
20180619033400 57 179 8.0 12.0 0.00 0.00 0.00 87 1019.1
20180619033306 57 221 7.0 11.0 0.00 0.00 0.00 87 1019.2
20180619033113 57 211 8.0 14.0 0.00 0.00 0.00 87 1019.2
20180619033016 57 180 8.0 14.0 0.00 0.00 0.00 87 1019.2
20180619032944 57 204 9.0 14.0 0.00 0.00 0.00 87 1019.1
20180619032851 57 177 9.0 14.0 0.00 0.00 0.00 87 1019.1
20180619032716 57 181 8.0 14.0 0.00 0.00 0.00 87 1019.1
20180619032644 57 206 7.0 14.0 0.00 0.00 0.00 86 1019.1
20180619032532 57 189 9.0 14.0 0.00 0.00 0.00 86 1019.1
20180619032417 57 187 10.0 14.0 0.00 0.00 0.00 86 1019.1
20180619032325 57 173 9.0 14.0 0.00 0.00 0.00 86 1019.1
20180619032212 57 177 9.0 12.0 0.00 0.00 0.00 86 1019.1
20180619032119 57 173 9.0 13.0 0.00 0.00 0.00 86 1019.1
20180619032023 57 178 8.0 13.0 0.00 0.00 0.00 86 1019.1
20180619031934 57 180 9.0 14.0 0.00 0.00 0.00 86 1019.3
20180619031841 57 173 9.0 14.0 0.00 0.00 0.00 86 1019.2
20180619031726 57 183 9.0 14.0 0.00 0.00 0.00 86 1019.2
20180619031613 57 180 9.0 14.0 0.00 0.00 0.00 86 1019.2
20180619031518 57 183 10.0 14.0 0.00 0.00 0.00 85 1019.2
20180619031445 57 182 11.0 14.0 0.00 0.00 0.00 85 1019.2
20180619031331 57 184 10.0 14.0 0.00 0.00 0.00 86 1019.2
20180619031302 58 179 9.0 14.0 0.00 0.00 0.00 86 1019.2
20180619031148 58 171 10.0 14.0 0.00 0.00 0.00 85 1019.2
20180619031010 58 186 9.0 13.0 0.00 0.00 0.00 85 1019.2
20180619030918 58 167 9.0 13.0 0.00 0.00 0.00 85 1019.2
20180619030846 58 177 9.0 13.0 0.00 0.00 0.00 85 1019.3
20180619030711 58 173 8.0 13.0 0.00 0.00 0.00 85 1019.2
20180619030638 58 185 9.0 13.0 0.00 0.00 0.00 85 1019.2
20180619030557 58 173 8.0 13.0 0.00 0.00 0.00 85 1019.2
20180619030447 58 168 9.0 13.0 0.00 0.00 0.00 85 1019.3
20180619030332 58 185 10.0 13.0 0.00 0.00 0.00 84 1019.3
20180619030218 58 153 11.0 13.0 0.00 0.00 0.00 84 1019.3
20180619030126 58 183 10.0 13.0 0.00 0.00 0.00 84 1019.3
20180619030028 58 174 9.0 13.0 0.00 0.00 0.00 84 1019.3
20180619025935 58 202 8.0 12.0 0.00 0.00 0.00 84 1019.3
20180619025842 58 181 8.0 12.0 0.00 0.00 0.00 84 1019.3
20180619025731 58 196 8.0 12.0 0.00 0.00 0.00 83 1019.3
20180619025616 58 191 8.0 12.0 0.00 0.00 0.00 83 1019.3
20180619025525 58 195 8.0 12.0 0.00 0.00 0.00 83 1019.3
20180619025449 58 188 8.0 12.0 0.00 0.00 0.00 83 1019.3
20180619025335 59 192 7.0 12.0 0.00 0.00 0.00 83 1019.3
20180619025221 58 207 6.0 12.0 0.00 0.00 0.00 83 1019.3
20180619025111 58 188 7.0 12.0 0.00 0.00 0.00 83 1019.3
20180619025014 59 198 8.0 12.0 0.00 0.00 0.00 83 1019.3
20180619024921 59 190 9.0 12.0 0.00 0.00 0.00 83 1019.2
20180619024849 59 180 9.0 12.0 0.00 0.00 0.00 83 1019.2
20180619024715 59 220 9.0 12.0 0.00 0.00 0.00 83 1019.3
20180619024623 59 204 10.0 12.0 0.00 0.00 0.00 83 1019.3
20180619024551 59 188 9.0 11.0 0.00 0.00 0.00 83 1019.3
20180619024420 59 198 8.0 11.0 0.00 0.00 0.00 83 1019.3
20180619024347 59 163 8.0 11.0 0.00 0.00 0.00 83 1019.3
20180619024213 59 171 8.0 11.0 0.00 0.00 0.00 82 1019.4
20180619024120 59 177 7.0 11.0 0.00 0.00 0.00 82 1019.3
20180619024024 59 183 7.0 11.0 0.00 0.00 0.00 82 1019.3
20180619023911 59 171 7.0 11.0 0.00 0.00 0.00 82 1019.4
20180619023823 59 163 7.0 12.0 0.00 0.00 0.00 82 1019.3
20180619023709 59 198 7.0 14.0 0.00 0.00 0.00 81 1019.3
20180619023637 60 177 6.0 14.0 0.00 0.00 0.00 82 1019.4
20180619023541 60 192 5.0 14.0 0.00 0.00 0.00 82 1019.3
20180619023426 60 213 5.0 14.0 0.00 0.00 0.00 82 1019.4
20180619023312 60 214 6.0 14.0 0.00 0.00 0.00 81 1019.3
20180619023239 60 232 6.0 14.0 0.00 0.00 0.00 82 1019.3
20180619023110 60 215 7.0 15.0 0.00 0.00 0.00 81 1019.3
20180619023013 60 189 9.0 15.0 0.00 0.00 0.00 81 1019.3
20180619022942 60 194 9.0 15.0 0.00 0.00 0.00 81 1019.3
20180619022826 60 190 9.0 15.0 0.00 0.00 0.00 81 1019.3
20180619022733 60 190 6.0 15.0 0.00 0.00 0.00 81 1019.3
20180619022618 60 175 5.0 15.0 0.00 0.00 0.00 81 1019.3
20180619022527 60 204 7.0 15.0 0.00 0.00 0.00 81 1019.3
20180619022414 60 192 10.0 15.0 0.00 0.00 0.00 81 1019.3
20180619022321 60 202 9.0 15.0 0.00 0.00 0.00 81 1019.3
20180619022228 60 209 7.0 13.0 0.00 0.00 0.00 81 1019.3
20180619022136 60 172 8.0 13.0 0.00 0.00 0.00 81 1019.2
20180619022019 60 169 8.0 13.0 0.00 0.00 0.00 80 1019.3
20180619021946 61 202 8.0 12.0 0.00 0.00 0.00 80 1019.3
20180619021835 61 194 5.0 12.0 0.00 0.00 0.00 80 1019.3
20180619021741 61 202 5.0 12.0 0.00 0.00 0.00 80 1019.3
20180619021627 60 201 6.0 12.0 0.00 0.00 0.00 80 1019.3
20180619021510 60 181 7.0 12.0 0.00 0.00 0.00 80 1019.4
20180619021417 60 213 7.0 12.0 0.00 0.00 0.00 80 1019.3
20180619021322 60 202 6.0 11.0 0.00 0.00 0.00 80 1019.3
20180619021214 60 179 6.0 11.0 0.00 0.00 0.00 80 1019.2
20180619021121 60 172 6.0 11.0 0.00 0.00 0.00 80 1019.2
20180619021027 60 194 7.0 11.0 0.00 0.00 0.00 80 1019.2
20180619020913 60 203 8.0 12.0 0.00 0.00 0.00 80 1019.2
20180619020821 60 182 9.0 12.0 0.00 0.00 0.00 80 1019.2
20180619020712 60 205 9.0 12.0 0.00 0.00 0.00 81 1019.2